CCA987 ZBAA-KLAX

Flight info

Callsign CCA987
Flight time 11h 46m
Altitude 31100
Route MUGLO9Z MUGLO W34 VAPGU W100 MUDOT DCT UNSEK A326 DONVO G597 AGAVO/N0489F310 Y644 EGOBA Y697 LANAT Y51 SAMON Y142 GTC Y512 ADNAP OTR7 EMRON/N0487F330 DCT 42N160E 43N170E 44N180E 45N170W/N0484F350 45N160W 43N150W 41N140W 39N130W DCT CEPAS DCT PIRAT DCT BURGL IRNMN2
Aircraft B77W/H-SDE1E2E3FGHIJ2J3J4J5M1RWXY/LB1D1

Departure

Time 2026-04-26 02:57
Airport Beijing Capital International Airport (ZBAA)

Arrival

Time 2026-04-26 14:44
Airport Los Angeles International Airport (KLAX)
Time Latitude Longitude Altitude Speed Heading
2026-04-26 02:11 40.07376 116.60784 124 ft 0 kts 263°
2026-04-26 02:36 40.07377 116.60795 123 ft 4 kts 263°
2026-04-26 02:36 40.07380 116.60830 123 ft 4 kts 263°
2026-04-26 02:37 40.07383 116.60859 123 ft 4 kts 252°
2026-04-26 02:37 40.07396 116.60886 123 ft 4 kts 210°
2026-04-26 02:37 40.07421 116.60897 124 ft 4 kts 184°
2026-04-26 02:37 40.07443 116.60897 124 ft 0 kts 173°
2026-04-26 02:46 40.07442 116.60897 124 ft 1 kts 173°
2026-04-26 02:46 40.07419 116.60901 123 ft 6 kts 173°
2026-04-26 02:47 40.07364 116.60909 125 ft 10 kts 173°
2026-04-26 02:47 40.07282 116.60922 125 ft 13 kts 173°
2026-04-26 02:47 40.07186 116.60936 127 ft 14 kts 173°
2026-04-26 02:47 40.07096 116.60950 126 ft 11 kts 173°
2026-04-26 02:48 40.07029 116.60960 125 ft 7 kts 173°
2026-04-26 02:48 40.06993 116.60966 126 ft 8 kts 173°
2026-04-26 02:48 40.06943 116.60938 125 ft 9 kts 239°
2026-04-26 02:48 40.06925 116.60857 124 ft 10 kts 259°
2026-04-26 02:49 40.06916 116.60762 126 ft 11 kts 264°
2026-04-26 02:49 40.06908 116.60658 125 ft 12 kts 264°
2026-04-26 02:49 40.06898 116.60544 124 ft 13 kts 263°
2026-04-26 02:49 40.06885 116.60421 126 ft 14 kts 262°
2026-04-26 02:50 40.06872 116.60290 125 ft 15 kts 263°
2026-04-26 02:50 40.06860 116.60154 127 ft 15 kts 263°
2026-04-26 02:50 40.06808 116.60055 125 ft 15 kts 185°
2026-04-26 02:50 40.06704 116.60068 126 ft 15 kts 174°
2026-04-26 02:51 40.06598 116.60085 124 ft 15 kts 173°
2026-04-26 02:51 40.06492 116.60103 125 ft 15 kts 173°
2026-04-26 02:51 40.06385 116.60120 124 ft 15 kts 173°
2026-04-26 02:51 40.06279 116.60137 124 ft 15 kts 173°
2026-04-26 02:52 40.06173 116.60153 125 ft 15 kts 173°
2026-04-26 02:52 40.06066 116.60169 124 ft 15 kts 173°
2026-04-26 02:52 40.05960 116.60185 124 ft 15 kts 173°
2026-04-26 02:52 40.05854 116.60201 126 ft 15 kts 172°
2026-04-26 02:53 40.05748 116.60219 126 ft 15 kts 172°
2026-04-26 02:53 40.05648 116.60234 126 ft 10 kts 173°
2026-04-26 02:53 40.05578 116.60239 126 ft 10 kts 192°
2026-04-26 02:53 40.05545 116.60185 124 ft 2 kts 258°
2026-04-26 02:54 40.05544 116.60183 126 ft 0 kts 258°
2026-04-26 02:55 40.05542 116.60169 125 ft 3 kts 258°
2026-04-26 02:55 40.05539 116.60129 126 ft 6 kts 272°
2026-04-26 02:55 40.05557 116.60070 125 ft 8 kts 296°
2026-04-26 02:56 40.05598 116.60012 123 ft 8 kts 337°
2026-04-26 02:56 40.05617 116.60007 125 ft 0 kts 351°
2026-04-26 02:56 40.05645 116.60001 124 ft 13 kts 352°
2026-04-26 02:56 40.05912 116.59959 126 ft 74 kts 353°
2026-04-26 02:57 40.06659 116.59841 126 ft 144 kts 353°
2026-04-26 02:57 40.07880 116.59641 132 ft 202 kts 349°
2026-04-26 02:57 40.09275 116.59353 570 ft 211 kts 348°
2026-04-26 02:57 40.10736 116.59044 1202 ft 206 kts 345°
2026-04-26 02:58 40.12191 116.58748 1686 ft 221 kts 347°
2026-04-26 02:58 40.13781 116.58507 1934 ft 238 kts 351°
2026-04-26 02:58 40.15420 116.58361 2570 ft 235 kts 354°
2026-04-26 02:58 40.17086 116.58154 2850 ft 251 kts 351°
2026-04-26 02:59 40.18881 116.58055 2945 ft 267 kts 355°
2026-04-26 02:59 40.20716 116.57960 3574 ft 263 kts 354°
2026-04-26 02:59 40.22513 116.57735 4322 ft 245 kts 345°
2026-04-26 02:59 40.24020 116.57121 5276 ft 224 kts 335°
2026-04-26 03:00 40.25492 116.56230 5300 ft 243 kts 329°
2026-04-26 03:00 40.26879 116.54925 5444 ft 254 kts 313°
2026-04-26 03:00 40.28190 116.53254 5673 ft 269 kts 315°
2026-04-26 03:00 40.29594 116.51614 6271 ft 273 kts 316°
2026-04-26 03:01 40.30948 116.49921 6903 ft 267 kts 304°
2026-04-26 03:01 40.31607 116.47725 7531 ft 262 kts 277°
2026-04-26 03:01 40.31672 116.45302 7926 ft 271 kts 272°
2026-04-26 03:01 40.31670 116.42834 8583 ft 269 kts 268°
2026-04-26 03:02 40.31665 116.40385 9212 ft 271 kts 268°
2026-04-26 03:02 40.31659 116.37890 9698 ft 275 kts 271°
2026-04-26 03:02 40.31656 116.35365 10259 ft 277 kts 271°
2026-04-26 03:02 40.31658 116.32755 10457 ft 297 kts 271°
2026-04-26 03:03 40.31659 116.29962 10617 ft 316 kts 269°
2026-04-26 03:03 40.31643 116.26989 10746 ft 334 kts 264°
2026-04-26 03:03 40.31074 116.23995 10890 ft 350 kts 241°
2026-04-26 03:03 40.29530 116.21484 11338 ft 362 kts 221°
2026-04-26 03:04 40.27351 116.19735 11738 ft 374 kts 209°
2026-04-26 03:04 40.25019 116.18202 12427 ft 375 kts 209°
2026-04-26 03:04 40.22666 116.16644 13072 ft 377 kts 210°
2026-04-26 03:04 40.20373 116.15070 14113 ft 369 kts 209°
2026-04-26 03:05 40.18097 116.13518 14810 ft 371 kts 207°
2026-04-26 03:05 40.15788 116.11976 15420 ft 375 kts 208°
2026-04-26 03:05 40.13440 116.10394 15815 ft 385 kts 208°
2026-04-26 03:05 40.11038 116.08759 16292 ft 392 kts 208°
2026-04-26 03:06 40.08605 116.07096 16803 ft 398 kts 208°
2026-04-26 03:06 40.06134 116.05411 17274 ft 404 kts 208°
2026-04-26 03:06 40.03535 116.04050 17629 ft 409 kts 192°
2026-04-26 03:06 40.00664 116.03883 18059 ft 419 kts 175°
2026-04-26 03:07 39.97828 116.04815 18607 ft 420 kts 161°
2026-04-26 03:07 39.95138 116.06193 19574 ft 411 kts 160°
2026-04-26 03:07 39.92467 116.07553 20113 ft 415 kts 160°
2026-04-26 03:07 39.89774 116.08905 20772 ft 415 kts 161°
2026-04-26 03:08 39.87090 116.10227 21067 ft 424 kts 161°
2026-04-26 03:08 39.84268 116.11594 21520 ft 428 kts 161°
2026-04-26 03:08 39.81460 116.12966 21887 ft 434 kts 159°
2026-04-26 03:08 39.78741 116.14711 22358 ft 437 kts 152°
2026-04-26 03:09 39.76160 116.16731 22763 ft 443 kts 149°
2026-04-26 03:09 39.73565 116.18887 23259 ft 444 kts 149°
2026-04-26 03:09 39.70943 116.21061 23624 ft 448 kts 149°
2026-04-26 03:09 39.68320 116.23194 24297 ft 445 kts 150°
2026-04-26 03:10 39.65667 116.25298 24688 ft 447 kts 150°
2026-04-26 03:10 39.62999 116.27382 25212 ft 448 kts 150°
2026-04-26 03:10 39.60314 116.29464 25583 ft 451 kts 151°
2026-04-26 03:10 39.57622 116.31550 26031 ft 452 kts 151°
2026-04-26 03:11 39.54923 116.33639 26471 ft 453 kts 150°
2026-04-26 03:11 39.52196 116.35749 26634 ft 460 kts 150°
2026-04-26 03:11 39.49443 116.37881 27014 ft 462 kts 150°
2026-04-26 03:11 39.46678 116.40058 27181 ft 469 kts 148°
2026-04-26 03:12 39.44037 116.42544 27538 ft 472 kts 143°
2026-04-26 03:12 39.41480 116.45241 27871 ft 474 kts 141°
2026-04-26 03:12 39.38954 116.47995 28143 ft 478 kts 141°
2026-04-26 03:12 39.36407 116.50747 28587 ft 477 kts 141°
2026-04-26 03:13 39.33833 116.53474 28888 ft 478 kts 142°
2026-04-26 03:13 39.31253 116.56161 29289 ft 478 kts 142°
2026-04-26 03:13 39.28656 116.58844 29668 ft 478 kts 143°
2026-04-26 03:13 39.26049 116.61522 29934 ft 479 kts 143°
2026-04-26 03:14 39.23430 116.64205 30120 ft 484 kts 143°
2026-04-26 03:14 39.20792 116.66915 30440 ft 483 kts 143°
2026-04-26 03:14 39.18158 116.69615 30701 ft 484 kts 143°
2026-04-26 03:14 39.15724 116.72580 30873 ft 487 kts 128°
2026-04-26 03:15 39.14043 116.76382 30939 ft 493 kts 110°
2026-04-26 03:15 39.13265 116.80683 30987 ft 495 kts 94°
2026-04-26 03:15 39.13008 116.89564 31002 ft 500 kts 93°
2026-04-26 03:16 39.12634 116.98553 30995 ft 505 kts 94°
2026-04-26 03:16 39.12198 117.07524 30997 ft 504 kts 93°
2026-04-26 03:17 39.11750 117.16496 30992 ft 502 kts 95°
2026-04-26 03:17 39.11299 117.25472 30992 ft 502 kts 94°
2026-04-26 03:18 39.10847 117.34435 30996 ft 502 kts 93°
2026-04-26 03:18 39.10387 117.43387 31003 ft 501 kts 95°
2026-04-26 03:19 39.09912 117.52338 31000 ft 501 kts 95°
2026-04-26 03:19 39.09414 117.61288 30991 ft 501 kts 94°
2026-04-26 03:20 39.08913 117.70227 31002 ft 501 kts 95°
2026-04-26 03:20 39.08405 117.79184 31002 ft 502 kts 94°
2026-04-26 03:21 39.07891 117.88144 30998 ft 502 kts 94°
2026-04-26 03:21 39.07371 117.97106 31001 ft 502 kts 95°
2026-04-26 03:22 39.06765 118.06045 31001 ft 501 kts 98°
2026-04-26 03:22 39.05391 118.14828 31004 ft 501 kts 104°
2026-04-26 03:23 39.03831 118.23555 31008 ft 501 kts 102°
2026-04-26 03:23 39.02388 118.32332 31006 ft 502 kts 102°
2026-04-26 03:24 39.00997 118.41128 31007 ft 502 kts 101°
2026-04-26 03:24 38.99581 118.49923 31008 ft 502 kts 103°
2026-04-26 03:25 38.98164 118.58696 30998 ft 501 kts 102°
2026-04-26 03:25 38.96748 118.67439 31013 ft 500 kts 102°
2026-04-26 03:26 38.95322 118.76188 30997 ft 501 kts 102°
2026-04-26 03:26 38.93899 118.84902 31009 ft 502 kts 103°
2026-04-26 03:27 38.92455 118.93678 30996 ft 503 kts 103°
2026-04-26 03:27 38.91007 119.02468 31006 ft 503 kts 103°
2026-04-26 03:28 38.89543 119.11238 30997 ft 502 kts 103°
2026-04-26 03:28 38.88069 119.20008 31008 ft 503 kts 102°
2026-04-26 03:29 38.86586 119.28768 30995 ft 502 kts 103°
2026-04-26 03:29 38.85101 119.37529 30998 ft 503 kts 103°
2026-04-26 03:30 38.83616 119.46285 31006 ft 502 kts 103°
2026-04-26 03:30 38.82116 119.55050 30998 ft 503 kts 104°
2026-04-26 03:31 38.80608 119.63802 31007 ft 503 kts 103°
2026-04-26 03:31 38.79091 119.72573 30998 ft 504 kts 103°
2026-04-26 03:32 38.77578 119.81306 30991 ft 501 kts 102°
2026-04-26 03:32 38.76061 119.90041 30998 ft 503 kts 107°
2026-04-26 03:33 38.73563 119.98352 31014 ft 499 kts 117°
2026-04-26 03:33 38.69971 120.05981 31002 ft 501 kts 124°
2026-04-26 03:34 38.66238 120.13480 31003 ft 500 kts 122°
2026-04-26 03:34 38.62716 120.21159 30994 ft 502 kts 116°
2026-04-26 03:35 38.60608 120.28072 31013 ft 502 kts 107°
2026-04-26 03:35 38.58843 120.38213 31010 ft 504 kts 102°
2026-04-26 03:36 38.57694 120.45547 31002 ft 501 kts 102°
2026-04-26 03:36 38.56256 120.54276 30998 ft 502 kts 103°
2026-04-26 03:37 38.54822 120.62992 31003 ft 501 kts 101°
2026-04-26 03:37 38.53408 120.71703 31008 ft 501 kts 103°
2026-04-26 03:38 38.51988 120.80421 31001 ft 501 kts 101°
2026-04-26 03:38 38.50562 120.89132 31006 ft 501 kts 102°
2026-04-26 03:39 38.49122 120.97828 30995 ft 501 kts 103°
2026-04-26 03:39 38.47692 121.06454 31004 ft 500 kts 103°
2026-04-26 03:40 38.46240 121.15156 30994 ft 503 kts 101°
2026-04-26 03:40 38.44886 121.23938 31013 ft 505 kts 100°
2026-04-26 03:41 38.43498 121.32680 30996 ft 501 kts 103°
2026-04-26 03:41 38.42044 121.41386 31008 ft 503 kts 102°
2026-04-26 03:42 38.40598 121.50141 31002 ft 506 kts 102°
2026-04-26 03:42 38.39137 121.58904 30996 ft 505 kts 102°
2026-04-26 03:43 38.37676 121.67626 31002 ft 500 kts 103°
2026-04-26 03:43 38.36217 121.76308 31005 ft 502 kts 103°
2026-04-26 03:44 38.34756 121.85001 31009 ft 502 kts 103°
2026-04-26 03:44 38.33286 121.93686 31006 ft 502 kts 103°
2026-04-26 03:45 38.31804 122.02377 31011 ft 502 kts 102°
2026-04-26 03:45 38.30316 122.11055 31007 ft 502 kts 103°
2026-04-26 03:46 38.28836 122.19666 31008 ft 501 kts 102°
2026-04-26 03:47 38.26766 122.32712 30993 ft 501 kts 99°
2026-04-26 03:47 38.25395 122.41368 30993 ft 498 kts 110°
2026-04-26 03:47 38.24006 122.45389 31007 ft 497 kts 121°
2026-04-26 03:48 38.22088 122.49115 30997 ft 497 kts 129°
2026-04-26 03:48 38.17300 122.55327 31015 ft 497 kts 137°
2026-04-26 03:49 38.12385 122.61543 30995 ft 499 kts 136°
2026-04-26 03:49 38.07550 122.67808 31005 ft 496 kts 136°
2026-04-26 03:50 38.02721 122.74092 31002 ft 498 kts 136°
2026-04-26 03:50 37.97872 122.80385 30993 ft 500 kts 136°
2026-04-26 03:51 37.92994 122.86696 31013 ft 502 kts 135°
2026-04-26 03:51 37.88118 122.92998 30989 ft 498 kts 135°
2026-04-26 03:52 37.83277 122.99238 31012 ft 496 kts 135°
2026-04-26 03:52 37.78451 123.05456 30994 ft 494 kts 135°
2026-04-26 03:53 37.73629 123.11645 31002 ft 496 kts 136°
2026-04-26 03:53 37.68782 123.17863 31005 ft 497 kts 136°
2026-04-26 03:54 37.63900 123.24107 30997 ft 503 kts 136°
2026-04-26 03:54 37.58987 123.30381 31013 ft 500 kts 136°
2026-04-26 03:55 37.54417 123.36904 30994 ft 496 kts 127°
2026-04-26 03:55 37.50327 123.43913 31010 ft 496 kts 128°
2026-04-26 03:56 37.46216 123.50899 30996 ft 498 kts 127°
2026-04-26 03:56 37.42071 123.57855 31006 ft 501 kts 128°
2026-04-26 03:57 37.37886 123.64834 30997 ft 500 kts 128°
2026-04-26 03:57 37.33684 123.71828 31001 ft 501 kts 128°
2026-04-26 03:58 37.29503 123.78782 30997 ft 496 kts 127°
2026-04-26 03:58 37.25340 123.85702 31004 ft 497 kts 129°
2026-04-26 03:59 37.21166 123.92622 31006 ft 497 kts 128°
2026-04-26 03:59 37.17707 124.00071 30999 ft 498 kts 108°
2026-04-26 03:59 37.16928 124.04309 30998 ft 501 kts 97°
2026-04-26 04:00 37.16823 124.08669 30995 ft 502 kts 84°
2026-04-26 04:00 37.17333 124.17419 31008 ft 505 kts 87°
2026-04-26 04:01 37.17671 124.26215 31009 ft 505 kts 89°
2026-04-26 04:01 37.17858 124.34983 31007 ft 501 kts 89°
2026-04-26 04:02 37.18047 124.43684 31005 ft 498 kts 89°
2026-04-26 04:02 37.18248 124.52359 30998 ft 498 kts 88°
2026-04-26 04:03 37.18442 124.61090 31015 ft 504 kts 88°
2026-04-26 04:03 37.18626 124.69838 31010 ft 506 kts 89°
2026-04-26 04:04 37.18811 124.78706 31005 ft 503 kts 88°
2026-04-26 04:04 37.18984 124.87389 31005 ft 501 kts 90°
2026-04-26 04:05 37.19164 124.96108 31006 ft 500 kts 88°
2026-04-26 04:05 37.19336 125.04827 31003 ft 500 kts 89°
2026-04-26 04:06 37.19501 125.13559 31014 ft 501 kts 89°
2026-04-26 04:06 37.19657 125.22317 31013 ft 502 kts 88°
2026-04-26 04:07 37.19813 125.31082 31005 ft 503 kts 89°
2026-04-26 04:07 37.19959 125.39850 30998 ft 502 kts 88°
2026-04-26 04:08 37.20099 125.48593 31009 ft 501 kts 90°
2026-04-26 04:08 37.20223 125.57324 30994 ft 501 kts 89°
2026-04-26 04:09 37.20333 125.66056 31012 ft 501 kts 89°
2026-04-26 04:09 37.20438 125.74801 30999 ft 502 kts 89°
2026-04-26 04:10 37.20544 125.83564 31010 ft 502 kts 89°
2026-04-26 04:10 37.20637 125.92326 31000 ft 502 kts 90°
2026-04-26 04:11 37.20729 126.01084 31002 ft 501 kts 89°
2026-04-26 04:11 37.20814 126.09823 30995 ft 501 kts 90°
2026-04-26 04:12 37.20890 126.18559 31010 ft 501 kts 89°
2026-04-26 04:12 37.20961 126.27298 30996 ft 502 kts 90°
2026-04-26 04:13 37.21027 126.35987 30998 ft 502 kts 89°
2026-04-26 04:13 37.21088 126.44740 30993 ft 502 kts 90°
2026-04-26 04:14 37.21141 126.53485 31006 ft 501 kts 90°
2026-04-26 04:14 37.21195 126.62226 30994 ft 502 kts 89°
2026-04-26 04:15 37.21244 126.70982 31002 ft 502 kts 90°
2026-04-26 04:15 37.21284 126.79748 30999 ft 503 kts 89°
2026-04-26 04:16 37.21328 126.88521 30993 ft 503 kts 91°
2026-04-26 04:16 37.21920 126.97197 30989 ft 500 kts 72°
2026-04-26 04:17 37.25106 127.04866 31014 ft 496 kts 47°
2026-04-26 04:17 37.29785 127.11238 31012 ft 499 kts 47°
2026-04-26 04:18 37.34480 127.17731 31008 ft 504 kts 47°
2026-04-26 04:18 37.39136 127.24321 30996 ft 502 kts 47°
2026-04-26 04:19 37.43743 127.30860 30995 ft 500 kts 46°
2026-04-26 04:19 37.47869 127.37882 31003 ft 501 kts 63°
2026-04-26 04:20 37.50198 127.46139 31002 ft 503 kts 79°
2026-04-26 04:20 37.51463 127.54813 31003 ft 505 kts 80°
2026-04-26 04:21 37.52824 127.63487 31008 ft 505 kts 77°
2026-04-26 04:21 37.54221 127.72148 31006 ft 504 kts 79°
2026-04-26 04:22 37.55592 127.80814 30991 ft 504 kts 79°
2026-04-26 04:22 37.56949 127.89461 31082 ft 502 kts 78°
2026-04-26 04:23 37.58260 127.97835 31094 ft 502 kts 79°
2026-04-26 04:23 37.58952 128.02238 31354 ft 504 kts 79°
2026-04-26 04:23 37.59632 128.06606 31190 ft 512 kts 79°
2026-04-26 04:24 37.61007 128.15478 31111 ft 516 kts 79°
2026-04-26 04:24 37.62381 128.24334 31049 ft 514 kts 79°
2026-04-26 04:25 37.63516 128.31671 31040 ft 511 kts 79°
2026-04-26 04:25 37.64867 128.40463 31036 ft 510 kts 79°
2026-04-26 04:26 37.66208 128.49241 31058 ft 511 kts 79°
2026-04-26 04:26 37.66882 128.53664 31231 ft 514 kts 79°
2026-04-26 04:26 37.67553 128.58086 31574 ft 512 kts 79°
2026-04-26 04:26 37.68213 128.62494 31955 ft 510 kts 80°
2026-04-26 04:27 37.68858 128.66892 32243 ft 510 kts 80°
2026-04-26 04:27 37.69306 128.71317 32418 ft 509 kts 91°
2026-04-26 04:27 37.68972 128.75747 32558 ft 507 kts 105°
2026-04-26 04:27 37.67932 128.79968 32802 ft 503 kts 116°
2026-04-26 04:28 37.66283 128.83818 32896 ft 496 kts 126°
2026-04-26 04:28 37.62580 128.91202 32919 ft 500 kts 125°
2026-04-26 04:29 37.58939 128.98648 32939 ft 497 kts 124°
2026-04-26 04:29 37.55370 129.06061 32935 ft 500 kts 124°
2026-04-26 04:30 37.51745 129.13596 32929 ft 506 kts 124°
2026-04-26 04:30 37.48080 129.21188 32929 ft 508 kts 124°
2026-04-26 04:31 37.44416 129.28755 32961 ft 501 kts 124°
2026-04-26 04:31 37.40820 129.36176 33018 ft 495 kts 125°
2026-04-26 04:32 37.37237 129.43565 32976 ft 495 kts 125°
2026-04-26 04:32 37.33645 129.50953 32947 ft 495 kts 125°
2026-04-26 04:33 37.30059 129.58318 32938 ft 494 kts 125°
2026-04-26 04:33 37.26472 129.65669 32946 ft 493 kts 125°
2026-04-26 04:34 37.22883 129.73005 32949 ft 493 kts 125°
2026-04-26 04:34 37.19293 129.80332 32947 ft 493 kts 125°
2026-04-26 04:35 37.15695 129.87651 32947 ft 493 kts 126°
2026-04-26 04:35 37.12085 129.94947 32959 ft 493 kts 126°
2026-04-26 04:36 37.08468 130.02243 32959 ft 493 kts 126°
2026-04-26 04:36 37.04848 130.09539 32955 ft 493 kts 127°
2026-04-26 04:37 37.01223 130.16820 32954 ft 493 kts 127°
2026-04-26 04:37 36.97599 130.24093 32971 ft 493 kts 127°
2026-04-26 04:38 36.93971 130.31363 32965 ft 493 kts 128°
2026-04-26 04:38 36.90336 130.38618 32968 ft 492 kts 128°
2026-04-26 04:39 36.86696 130.45871 32977 ft 493 kts 128°
2026-04-26 04:39 36.83055 130.53116 32965 ft 493 kts 129°
2026-04-26 04:40 36.79407 130.60356 32984 ft 493 kts 129°
2026-04-26 04:40 36.75780 130.67542 32983 ft 493 kts 129°
2026-04-26 04:41 36.72119 130.74770 32987 ft 493 kts 129°
2026-04-26 04:41 36.68452 130.81993 32985 ft 493 kts 129°
2026-04-26 04:42 36.64782 130.89212 32986 ft 493 kts 129°
2026-04-26 04:42 36.61106 130.96428 32986 ft 493 kts 129°
2026-04-26 04:43 36.57429 131.03631 33005 ft 493 kts 129°
2026-04-26 04:43 36.53746 131.10830 32990 ft 493 kts 129°
2026-04-26 04:44 36.50059 131.18024 32998 ft 494 kts 130°
2026-04-26 04:44 36.46362 131.25218 33000 ft 494 kts 130°
2026-04-26 04:45 36.42657 131.32419 33000 ft 495 kts 130°
2026-04-26 04:45 36.39074 131.39736 32996 ft 503 kts 122°
2026-04-26 04:45 36.37818 131.43838 33012 ft 514 kts 112°
2026-04-26 04:46 36.37045 131.48200 33008 ft 523 kts 103°
2026-04-26 04:46 36.36693 131.57305 32991 ft 531 kts 97°
2026-04-26 04:47 36.36526 131.66427 33022 ft 534 kts 98°
2026-04-26 04:47 36.36290 131.75650 33035 ft 536 kts 98°
2026-04-26 04:48 36.35840 131.89560 33014 ft 539 kts 99°
2026-04-26 04:48 36.35521 131.98871 32985 ft 541 kts 99°
2026-04-26 04:49 36.35199 132.08204 33010 ft 542 kts 100°
2026-04-26 04:49 36.34870 132.17560 33015 ft 544 kts 100°
2026-04-26 04:50 36.34533 132.26949 33015 ft 545 kts 100°
2026-04-26 04:50 36.34190 132.36349 33015 ft 546 kts 100°
2026-04-26 04:51 36.33839 132.45760 32999 ft 547 kts 101°
2026-04-26 04:51 36.33478 132.55184 33019 ft 548 kts 101°
2026-04-26 04:52 36.33109 132.64630 32990 ft 550 kts 102°
2026-04-26 04:52 36.32726 132.74148 33021 ft 556 kts 102°
2026-04-26 04:53 36.32330 132.83798 33024 ft 564 kts 102°
2026-04-26 04:53 36.31932 132.93511 33012 ft 564 kts 102°
2026-04-26 04:54 36.31527 133.03220 33014 ft 564 kts 102°
2026-04-26 04:54 36.31112 133.12917 33011 ft 563 kts 102°
2026-04-26 04:55 36.30692 133.22528 33017 ft 561 kts 102°
2026-04-26 04:55 36.30261 133.32182 32982 ft 560 kts 103°
2026-04-26 04:56 36.29812 133.41819 33021 ft 561 kts 103°
2026-04-26 04:56 36.29370 133.51507 33027 ft 564 kts 103°
2026-04-26 04:57 36.28913 133.61244 33023 ft 567 kts 103°
2026-04-26 04:57 36.28444 133.71035 33007 ft 571 kts 103°
2026-04-26 04:58 36.27961 133.80874 33022 ft 573 kts 103°
2026-04-26 04:58 36.27449 133.90743 33025 ft 575 kts 103°
2026-04-26 04:59 36.26930 134.00642 32992 ft 576 kts 103°
2026-04-26 04:59 36.26408 134.10545 33017 ft 576 kts 103°
2026-04-26 05:00 36.25891 134.20455 33016 ft 577 kts 103°
2026-04-26 05:00 36.25373 134.30369 33020 ft 577 kts 103°
2026-04-26 05:01 36.24845 134.40279 33002 ft 576 kts 103°
2026-04-26 05:01 36.25323 134.50326 33034 ft 596 kts 84°
2026-04-26 05:02 36.27924 134.60152 33008 ft 606 kts 65°
2026-04-26 05:02 36.31770 134.69479 33011 ft 609 kts 64°
2026-04-26 05:03 36.35645 134.78844 33016 ft 611 kts 64°
2026-04-26 05:03 36.39435 134.88304 33018 ft 613 kts 65°
2026-04-26 05:04 36.43149 134.97752 33019 ft 614 kts 65°
2026-04-26 05:04 36.46883 135.07283 33025 ft 614 kts 65°
2026-04-26 05:05 36.50618 135.16810 33039 ft 613 kts 65°
2026-04-26 05:05 36.54351 135.26344 33028 ft 613 kts 65°
2026-04-26 05:06 36.58069 135.35867 33028 ft 612 kts 65°
2026-04-26 05:06 36.61772 135.45386 33031 ft 611 kts 65°
2026-04-26 05:07 36.65463 135.54904 33032 ft 610 kts 65°
2026-04-26 05:07 36.69143 135.64423 33029 ft 610 kts 65°
2026-04-26 05:08 36.72813 135.73946 33034 ft 610 kts 65°
2026-04-26 05:08 36.76477 135.83483 33017 ft 610 kts 64°
2026-04-26 05:09 36.80139 135.93039 33041 ft 611 kts 64°
2026-04-26 05:09 36.83794 136.02608 33029 ft 611 kts 64°
2026-04-26 05:10 36.87448 136.12204 33027 ft 612 kts 65°
2026-04-26 05:10 36.91097 136.21816 33045 ft 613 kts 65°
2026-04-26 05:11 36.94741 136.31447 33041 ft 613 kts 64°
2026-04-26 05:11 36.98354 136.41022 33043 ft 613 kts 64°
2026-04-26 05:12 37.01980 136.50663 33047 ft 612 kts 64°
2026-04-26 05:12 37.05597 136.60311 33041 ft 612 kts 64°
2026-04-26 05:13 37.09199 136.69948 33042 ft 611 kts 64°
2026-04-26 05:13 37.12793 136.79595 33033 ft 611 kts 64°
2026-04-26 05:14 37.16372 136.89232 33029 ft 610 kts 64°
2026-04-26 05:14 37.19337 136.97250 33045 ft 610 kts 64°
2026-04-26 05:15 37.22896 137.06910 33042 ft 610 kts 64°
2026-04-26 05:15 37.26454 137.16582 33034 ft 610 kts 64°
2026-04-26 05:16 37.29996 137.26241 33035 ft 609 kts 64°
2026-04-26 05:16 37.33530 137.35909 33037 ft 608 kts 64°
2026-04-26 05:17 37.37051 137.45576 33049 ft 608 kts 64°
2026-04-26 05:17 37.40558 137.55234 33047 ft 607 kts 64°
2026-04-26 05:18 37.44056 137.64899 33046 ft 607 kts 64°
2026-04-26 05:18 37.47543 137.74565 33051 ft 606 kts 64°
2026-04-26 05:19 37.51020 137.84231 33045 ft 606 kts 64°
2026-04-26 05:19 37.54485 137.93897 33056 ft 605 kts 64°
2026-04-26 05:20 37.57939 138.03562 33045 ft 604 kts 64°
2026-04-26 05:20 37.61381 138.13223 33051 ft 603 kts 64°
2026-04-26 05:21 37.64805 138.22868 33028 ft 602 kts 64°
2026-04-26 05:21 37.68218 138.32514 33042 ft 602 kts 64°
2026-04-26 05:22 37.71629 138.42177 33046 ft 603 kts 64°
2026-04-26 05:22 37.75038 138.51857 33048 ft 604 kts 64°
2026-04-26 05:23 37.78445 138.61559 33044 ft 604 kts 64°
2026-04-26 05:23 37.81848 138.71282 33042 ft 605 kts 64°
2026-04-26 05:24 37.85249 138.81033 33033 ft 606 kts 64°
2026-04-26 05:24 37.88638 138.90787 33032 ft 606 kts 64°
2026-04-26 05:25 37.91998 139.00482 33018 ft 605 kts 64°
2026-04-26 05:25 37.95101 139.10458 33032 ft 605 kts 72°
2026-04-26 05:26 37.96956 139.20741 33035 ft 601 kts 84°
2026-04-26 05:26 37.97967 139.31231 33042 ft 599 kts 85°
2026-04-26 05:27 37.99005 139.41708 33060 ft 599 kts 84°
2026-04-26 05:27 38.00106 139.52161 33013 ft 598 kts 84°
2026-04-26 05:28 38.01210 139.62618 33050 ft 600 kts 84°
2026-04-26 05:28 38.02299 139.73153 33000 ft 604 kts 84°
2026-04-26 05:29 38.03377 139.83712 33039 ft 603 kts 84°
2026-04-26 05:29 38.04442 139.94263 33040 ft 603 kts 84°
2026-04-26 05:30 38.05503 140.04823 33042 ft 602 kts 84°
2026-04-26 05:30 38.06555 140.15348 33040 ft 601 kts 84°
2026-04-26 05:31 38.07593 140.25880 33067 ft 603 kts 85°
2026-04-26 05:31 38.08627 140.36443 33063 ft 603 kts 84°
2026-04-26 05:32 38.09648 140.47023 33068 ft 605 kts 84°
2026-04-26 05:32 38.10668 140.57630 33085 ft 604 kts 85°
2026-04-26 05:33 38.11672 140.68216 33087 ft 604 kts 85°
2026-04-26 05:33 38.12665 140.78805 33100 ft 604 kts 85°
2026-04-26 05:34 38.13496 140.89422 33100 ft 603 kts 91°
2026-04-26 05:34 38.13171 141.00025 33098 ft 598 kts 103°
2026-04-26 05:35 38.11898 141.10441 33115 ft 598 kts 104°
2026-04-26 05:35 38.10632 141.20885 33115 ft 599 kts 104°
2026-04-26 05:36 38.09426 141.31350 33101 ft 599 kts 103°
2026-04-26 05:36 38.08240 141.41748 33114 ft 598 kts 103°
2026-04-26 05:37 38.07035 141.52178 33114 ft 597 kts 104°
2026-04-26 05:37 38.05813 141.62598 33116 ft 596 kts 104°
2026-04-26 05:38 38.04581 141.73011 33132 ft 598 kts 104°
2026-04-26 05:38 38.03337 141.83457 33146 ft 600 kts 104°
2026-04-26 05:39 38.02082 141.93928 33096 ft 601 kts 104°
2026-04-26 05:39 38.00817 142.04417 33132 ft 602 kts 104°
2026-04-26 05:40 37.99534 142.14918 33143 ft 604 kts 104°
2026-04-26 05:40 37.98232 142.25444 33141 ft 605 kts 104°
2026-04-26 05:41 37.96925 142.35968 33129 ft 604 kts 105°
2026-04-26 05:41 37.95609 142.46490 33153 ft 604 kts 105°
2026-04-26 05:42 37.94283 142.57004 33157 ft 604 kts 105°
2026-04-26 05:42 37.92949 142.67509 33140 ft 604 kts 105°
2026-04-26 05:43 37.91606 142.78007 33158 ft 603 kts 105°
2026-04-26 05:43 37.90254 142.88492 33158 ft 603 kts 105°
2026-04-26 05:44 37.88894 142.98972 33162 ft 603 kts 105°
2026-04-26 05:44 37.87524 143.09452 33143 ft 603 kts 105°
2026-04-26 05:45 37.86147 143.19924 33162 ft 603 kts 105°
2026-04-26 05:45 37.84769 143.30320 33171 ft 604 kts 105°
2026-04-26 05:46 37.83373 143.40793 33172 ft 604 kts 105°
2026-04-26 05:46 37.81949 143.51257 33184 ft 602 kts 108°
2026-04-26 05:47 37.79705 143.61338 33176 ft 590 kts 118°
2026-04-26 05:47 37.76863 143.71065 33180 ft 590 kts 118°
2026-04-26 05:48 37.74037 143.80822 33165 ft 591 kts 118°
2026-04-26 05:48 37.71258 143.90605 33179 ft 592 kts 117°
2026-04-26 05:49 37.67096 144.05295 33186 ft 593 kts 118°
2026-04-26 05:50 37.64304 144.15082 33186 ft 592 kts 118°
2026-04-26 05:50 37.61504 144.24842 33204 ft 592 kts 118°
2026-04-26 05:51 37.58694 144.34598 33194 ft 592 kts 118°
2026-04-26 05:51 37.55879 144.44342 33195 ft 591 kts 118°
2026-04-26 05:52 37.53061 144.54064 33194 ft 591 kts 118°
2026-04-26 05:52 37.50237 144.63771 33202 ft 590 kts 118°
2026-04-26 05:53 37.47406 144.73464 33208 ft 590 kts 118°
2026-04-26 05:53 37.44586 144.83087 33206 ft 590 kts 118°
2026-04-26 05:54 37.41742 144.92760 33211 ft 590 kts 118°
2026-04-26 05:54 37.38888 145.02430 33195 ft 589 kts 118°
2026-04-26 05:55 37.36031 145.12080 33207 ft 589 kts 118°
2026-04-26 05:55 37.33165 145.21722 33213 ft 589 kts 118°
2026-04-26 05:56 37.30294 145.31353 33180 ft 589 kts 118°
2026-04-26 05:56 37.27416 145.40970 33212 ft 588 kts 118°
2026-04-26 05:57 37.24536 145.50569 33213 ft 587 kts 118°
2026-04-26 05:57 37.21755 145.60203 33201 ft 592 kts 110°
2026-04-26 05:57 37.21029 145.65329 33164 ft 601 kts 98°
2026-04-26 05:58 37.20968 145.70575 33212 ft 604 kts 87°
2026-04-26 05:58 37.21532 145.75800 33209 ft 605 kts 75°
2026-04-26 05:58 37.22693 145.80844 33250 ft 602 kts 71°
2026-04-26 05:59 37.25182 145.90907 33232 ft 605 kts 71°
2026-04-26 05:59 37.27600 146.01056 33232 ft 608 kts 72°
2026-04-26 06:00 37.29931 146.11291 33231 ft 610 kts 72°
2026-04-26 06:00 37.32230 146.21560 33226 ft 611 kts 72°
2026-04-26 06:01 37.34529 146.31835 33232 ft 610 kts 72°
2026-04-26 06:01 37.36822 146.42082 33225 ft 609 kts 72°
2026-04-26 06:02 37.38722 146.50592 33219 ft 607 kts 72°
2026-04-26 06:02 37.41360 146.62469 33225 ft 606 kts 72°
2026-04-26 06:03 37.43614 146.72675 33235 ft 605 kts 73°
2026-04-26 06:03 37.45496 146.81226 33233 ft 605 kts 73°
2026-04-26 06:04 37.47734 146.91442 33247 ft 606 kts 73°
2026-04-26 06:04 37.49967 147.01682 33238 ft 607 kts 73°
2026-04-26 06:05 37.52195 147.11945 33242 ft 608 kts 73°
2026-04-26 06:05 37.54401 147.22151 33246 ft 608 kts 73°
2026-04-26 06:06 37.56615 147.32444 33250 ft 608 kts 73°
2026-04-26 06:06 37.58820 147.42740 33250 ft 609 kts 73°
2026-04-26 06:07 37.61016 147.53046 33242 ft 607 kts 73°
2026-04-26 06:07 37.63198 147.63334 33245 ft 607 kts 73°
2026-04-26 06:08 37.65368 147.73613 33245 ft 606 kts 73°
2026-04-26 06:08 37.67528 147.83888 33254 ft 605 kts 73°
2026-04-26 06:09 37.69676 147.94160 33267 ft 605 kts 73°
2026-04-26 06:09 37.71814 148.04430 33256 ft 605 kts 73°
2026-04-26 06:10 37.73946 148.14717 33241 ft 605 kts 73°
2026-04-26 06:10 37.76067 148.25006 33259 ft 605 kts 73°
2026-04-26 06:11 37.78182 148.35309 33259 ft 606 kts 73°
2026-04-26 06:11 37.80288 148.45623 33252 ft 606 kts 73°
2026-04-26 06:12 37.82386 148.55948 33251 ft 606 kts 73°
2026-04-26 06:12 37.84477 148.66283 33274 ft 606 kts 73°
2026-04-26 06:13 37.86558 148.76627 33265 ft 607 kts 73°
2026-04-26 06:13 37.88631 148.86978 33261 ft 607 kts 73°
2026-04-26 06:14 37.90696 148.97341 33264 ft 607 kts 73°
2026-04-26 06:14 37.92753 149.07713 33273 ft 607 kts 73°
2026-04-26 06:15 37.94799 149.18082 33266 ft 607 kts 73°
2026-04-26 06:15 37.96836 149.28461 33266 ft 607 kts 73°
2026-04-26 06:16 37.98864 149.38842 33272 ft 607 kts 74°
2026-04-26 06:16 38.00868 149.49158 33271 ft 607 kts 74°
2026-04-26 06:17 38.02877 149.59544 33273 ft 607 kts 74°
2026-04-26 06:17 38.04876 149.69938 33268 ft 606 kts 74°
2026-04-26 06:18 38.06862 149.80319 33262 ft 605 kts 74°
2026-04-26 06:18 38.08841 149.90703 33296 ft 605 kts 74°
2026-04-26 06:19 38.11390 150.00829 33285 ft 599 kts 63°
2026-04-26 06:19 38.15071 150.10225 33283 ft 591 kts 53°
2026-04-26 06:20 38.19251 150.19205 33313 ft 591 kts 52°
2026-04-26 06:20 38.23424 150.28230 33288 ft 593 kts 53°
2026-04-26 06:21 38.27553 150.37325 33290 ft 594 kts 53°
2026-04-26 06:21 38.31656 150.46452 33299 ft 594 kts 53°
2026-04-26 06:22 38.35752 150.55589 33295 ft 594 kts 53°
2026-04-26 06:22 38.39845 150.64728 33300 ft 593 kts 53°
2026-04-26 06:23 38.43902 150.73805 33302 ft 593 kts 53°
2026-04-26 06:23 38.48007 150.83018 33311 ft 593 kts 53°
2026-04-26 06:24 38.52047 150.92109 33313 ft 593 kts 53°
2026-04-26 06:24 38.56104 151.01267 33311 ft 592 kts 53°
2026-04-26 06:25 38.60151 151.10431 33323 ft 592 kts 53°
2026-04-26 06:25 38.64193 151.19606 33314 ft 592 kts 54°
2026-04-26 06:26 38.68222 151.28780 33319 ft 592 kts 54°
2026-04-26 06:26 38.72247 151.37974 33393 ft 592 kts 53°
2026-04-26 06:27 38.76267 151.47178 33320 ft 592 kts 54°
2026-04-26 06:27 38.80275 151.56387 33331 ft 591 kts 54°
2026-04-26 06:28 38.84268 151.65587 33342 ft 590 kts 54°
2026-04-26 06:28 38.88249 151.74788 33329 ft 589 kts 54°
2026-04-26 06:29 38.92215 151.83978 33329 ft 588 kts 54°
2026-04-26 06:29 38.96173 151.93177 33347 ft 588 kts 54°
2026-04-26 06:30 39.00090 152.02306 33341 ft 587 kts 54°
2026-04-26 06:30 39.04026 152.11507 33335 ft 587 kts 54°
2026-04-26 06:31 39.07954 152.20716 33341 ft 587 kts 54°
2026-04-26 06:31 39.11872 152.29931 33335 ft 587 kts 54°
2026-04-26 06:32 39.15787 152.39164 33337 ft 587 kts 54°
2026-04-26 06:32 39.19694 152.48408 33341 ft 588 kts 54°
2026-04-26 06:33 39.23596 152.57668 33385 ft 588 kts 54°
2026-04-26 06:33 39.27492 152.66937 33342 ft 587 kts 55°
2026-04-26 06:34 39.31360 152.76177 33340 ft 584 kts 55°
2026-04-26 06:34 39.35205 152.85388 33348 ft 581 kts 55°
2026-04-26 06:35 39.39027 152.94565 33337 ft 579 kts 55°
2026-04-26 06:35 39.42832 153.03728 33345 ft 577 kts 55°
2026-04-26 06:36 39.46621 153.12877 33349 ft 577 kts 55°
2026-04-26 06:36 39.50404 153.22041 33355 ft 577 kts 55°
2026-04-26 06:37 39.54181 153.31218 33350 ft 577 kts 56°
2026-04-26 06:37 39.57950 153.40406 33353 ft 578 kts 56°
2026-04-26 06:38 39.61715 153.49612 33362 ft 578 kts 56°
2026-04-26 06:38 39.65470 153.58822 33356 ft 578 kts 56°
2026-04-26 06:39 39.69218 153.68040 33354 ft 577 kts 56°
2026-04-26 06:39 39.72958 153.77268 33374 ft 577 kts 56°
2026-04-26 06:40 39.76682 153.86483 33368 ft 573 kts 57°
2026-04-26 06:40 39.80318 153.95524 33349 ft 564 kts 57°
2026-04-26 06:41 39.83981 154.04642 33362 ft 566 kts 57°
2026-04-26 06:41 39.87624 154.13727 33360 ft 566 kts 57°
2026-04-26 06:42 39.91260 154.22830 33358 ft 567 kts 57°
2026-04-26 06:42 39.94887 154.31944 33358 ft 566 kts 57°
2026-04-26 06:43 39.98501 154.41056 33365 ft 564 kts 57°
2026-04-26 06:43 40.02079 154.50104 33353 ft 560 kts 57°
2026-04-26 06:44 40.05615 154.59068 33355 ft 558 kts 57°
2026-04-26 06:44 40.09163 154.68083 33378 ft 558 kts 57°
2026-04-26 06:45 40.12700 154.77104 33362 ft 558 kts 57°
2026-04-26 06:45 40.16234 154.86140 33360 ft 558 kts 57°
2026-04-26 06:46 40.19758 154.95185 33361 ft 558 kts 57°
2026-04-26 06:46 40.23277 155.04241 33371 ft 558 kts 57°
2026-04-26 06:47 40.26783 155.13294 33385 ft 556 kts 58°
2026-04-26 06:47 40.30266 155.22317 33354 ft 553 kts 58°
2026-04-26 06:48 40.33724 155.31299 33356 ft 550 kts 58°
2026-04-26 06:48 40.37153 155.40234 33359 ft 548 kts 58°
2026-04-26 06:49 40.40568 155.49155 33359 ft 547 kts 58°
2026-04-26 06:49 40.43977 155.58085 33357 ft 547 kts 58°
2026-04-26 06:50 40.47382 155.67033 33376 ft 549 kts 58°
2026-04-26 06:50 40.50214 155.74498 33372 ft 549 kts 58°
2026-04-26 06:51 40.53617 155.83497 33361 ft 550 kts 58°
2026-04-26 06:51 40.58708 155.97011 33386 ft 549 kts 58°
2026-04-26 06:52 40.62085 156.06010 33361 ft 547 kts 59°
2026-04-26 06:52 40.65442 156.14982 33360 ft 545 kts 59°
2026-04-26 06:53 40.68778 156.23925 33359 ft 543 kts 59°
2026-04-26 06:53 40.72097 156.32849 33372 ft 541 kts 59°
2026-04-26 06:54 40.75397 156.41747 33374 ft 540 kts 59°
2026-04-26 06:54 40.78686 156.50643 33366 ft 539 kts 59°
2026-04-26 06:55 40.81943 156.59480 33368 ft 539 kts 59°
2026-04-26 06:55 40.85218 156.68393 33364 ft 540 kts 59°
2026-04-26 06:56 40.88486 156.77317 33367 ft 540 kts 59°
2026-04-26 06:56 40.91753 156.86264 33366 ft 540 kts 59°
2026-04-26 06:57 40.95013 156.95222 33371 ft 541 kts 59°
2026-04-26 06:57 40.98267 157.04189 33364 ft 540 kts 59°
2026-04-26 06:58 41.01510 157.13155 33359 ft 540 kts 59°
2026-04-26 06:58 41.04742 157.22119 33377 ft 539 kts 59°
2026-04-26 06:59 41.07963 157.31081 33364 ft 538 kts 59°
2026-04-26 06:59 41.11173 157.40038 33360 ft 538 kts 59°
2026-04-26 07:00 41.14374 157.48998 33364 ft 537 kts 59°
2026-04-26 07:00 41.17564 157.57957 33378 ft 537 kts 59°
2026-04-26 07:01 41.20746 157.66921 33362 ft 537 kts 59°
2026-04-26 07:01 41.23923 157.75896 33364 ft 536 kts 59°
2026-04-26 07:02 41.27083 157.84859 33360 ft 535 kts 59°
2026-04-26 07:02 41.30227 157.93805 33370 ft 534 kts 59°
2026-04-26 07:03 41.33338 158.02678 33364 ft 533 kts 59°
2026-04-26 07:03 41.36461 158.11613 33364 ft 532 kts 59°
2026-04-26 07:04 41.39575 158.20553 33383 ft 532 kts 59°
2026-04-26 07:04 41.42681 158.29501 33369 ft 532 kts 59°
2026-04-26 07:05 41.45782 158.38460 33363 ft 532 kts 59°
2026-04-26 07:05 41.48875 158.47425 33356 ft 532 kts 59°
2026-04-26 07:06 41.51963 158.56405 33369 ft 532 kts 60°
2026-04-26 07:06 41.55041 158.65386 33366 ft 532 kts 60°
2026-04-26 07:07 41.58115 158.74382 33361 ft 532 kts 60°
2026-04-26 07:07 41.61180 158.83383 33366 ft 533 kts 60°
2026-04-26 07:08 41.64242 158.92402 33368 ft 533 kts 60°
2026-04-26 07:08 41.67298 159.01435 33374 ft 533 kts 60°
2026-04-26 07:09 41.70346 159.10474 33362 ft 533 kts 60°
2026-04-26 07:09 41.73386 159.19517 33386 ft 533 kts 60°
2026-04-26 07:11 41.80954 159.42164 33355 ft 532 kts 60°
2026-04-26 07:11 41.83968 159.51233 33359 ft 532 kts 60°
2026-04-26 07:12 41.86973 159.60306 33360 ft 533 kts 60°
2026-04-26 07:12 41.89978 159.69407 33354 ft 533 kts 60°
2026-04-26 07:13 41.92954 159.78455 33352 ft 533 kts 60°
2026-04-26 07:13 41.95943 159.87574 33375 ft 534 kts 59°
2026-04-26 07:14 41.98914 159.96731 33348 ft 536 kts 62°
2026-04-26 07:14 42.01076 160.06401 33340 ft 546 kts 74°
2026-04-26 07:15 42.02464 160.16443 33356 ft 546 kts 75°
2026-04-26 07:15 42.03836 160.26501 33346 ft 548 kts 75°
2026-04-26 07:16 42.05249 160.36571 33356 ft 548 kts 74°
2026-04-26 07:16 42.06681 160.46654 33361 ft 549 kts 74°
2026-04-26 07:17 42.08108 160.56748 33363 ft 549 kts 74°
2026-04-26 07:17 42.09526 160.66864 33350 ft 550 kts 74°
2026-04-26 07:18 42.10934 160.77002 33346 ft 551 kts 74°
2026-04-26 07:18 42.12334 160.87149 33347 ft 551 kts 74°
2026-04-26 07:19 42.13727 160.97318 33354 ft 553 kts 74°
2026-04-26 07:19 42.15105 161.07442 33343 ft 553 kts 74°
2026-04-26 07:20 42.16493 161.17712 33338 ft 553 kts 74°
2026-04-26 07:20 42.17855 161.27860 33343 ft 555 kts 74°
2026-04-26 07:21 42.19220 161.38098 33339 ft 555 kts 74°
2026-04-26 07:21 42.20586 161.48424 33337 ft 556 kts 74°
2026-04-26 07:22 42.21924 161.58612 33370 ft 556 kts 74°
2026-04-26 07:22 42.23267 161.68901 33340 ft 557 kts 74°
2026-04-26 07:23 42.24600 161.79203 33331 ft 557 kts 74°
2026-04-26 07:23 42.25925 161.89510 33331 ft 557 kts 74°
2026-04-26 07:24 42.27241 161.99822 33329 ft 558 kts 74°
2026-04-26 07:24 42.28548 162.10147 33327 ft 558 kts 74°
2026-04-26 07:25 42.29845 162.20469 33321 ft 557 kts 75°
2026-04-26 07:25 42.31133 162.30798 33328 ft 558 kts 74°
2026-04-26 07:26 42.32415 162.41144 33312 ft 558 kts 74°
2026-04-26 07:26 42.33686 162.51495 33326 ft 559 kts 75°
2026-04-26 07:27 42.34950 162.61862 33340 ft 559 kts 74°
2026-04-26 07:27 42.36206 162.72244 33315 ft 560 kts 75°
2026-04-26 07:28 42.37454 162.82645 33310 ft 561 kts 75°
2026-04-26 07:28 42.38685 162.92990 33311 ft 561 kts 75°
2026-04-26 07:29 42.39917 163.03421 33314 ft 563 kts 74°
2026-04-26 07:29 42.41144 163.13889 33309 ft 563 kts 75°
2026-04-26 07:30 42.42361 163.24368 33302 ft 564 kts 75°
2026-04-26 07:30 42.43569 163.34855 33326 ft 565 kts 75°
2026-04-26 07:31 42.44770 163.45365 33304 ft 565 kts 75°
2026-04-26 07:31 42.45962 163.55886 33292 ft 565 kts 75°
2026-04-26 07:32 42.47143 163.66405 33326 ft 565 kts 75°
2026-04-26 07:32 42.48317 163.76940 33300 ft 566 kts 75°
2026-04-26 07:33 42.49482 163.87484 33293 ft 566 kts 75°
2026-04-26 07:33 42.50636 163.98034 33289 ft 566 kts 75°
2026-04-26 07:34 42.51783 164.08595 33286 ft 567 kts 75°
2026-04-26 07:34 42.52920 164.19168 33242 ft 567 kts 75°
2026-04-26 07:35 42.54046 164.29736 33283 ft 566 kts 75°
2026-04-26 07:35 42.55154 164.40229 33294 ft 567 kts 75°
2026-04-26 07:36 42.56264 164.50819 33278 ft 567 kts 75°
2026-04-26 07:36 42.57364 164.61419 33278 ft 567 kts 75°
2026-04-26 07:37 42.58453 164.72020 33309 ft 568 kts 75°
2026-04-26 07:37 42.59536 164.82651 33274 ft 569 kts 75°
2026-04-26 07:38 42.60608 164.93284 33269 ft 569 kts 76°
2026-04-26 07:38 42.61671 165.03928 33269 ft 569 kts 76°
2026-04-26 07:39 42.62725 165.14578 33269 ft 570 kts 76°
2026-04-26 07:39 42.63771 165.25245 33271 ft 570 kts 76°
2026-04-26 07:40 42.64805 165.35912 33260 ft 569 kts 76°
2026-04-26 07:40 42.65657 165.44777 33266 ft 569 kts 76°
2026-04-26 07:41 42.66673 165.55440 33265 ft 569 kts 76°
2026-04-26 07:41 42.67679 165.66100 33257 ft 569 kts 76°
2026-04-26 07:42 42.68675 165.76772 33259 ft 569 kts 76°
2026-04-26 07:42 42.69663 165.87456 33256 ft 570 kts 76°
2026-04-26 07:43 42.70641 165.98152 33259 ft 570 kts 76°
2026-04-26 07:43 42.71609 166.08852 33249 ft 570 kts 76°
2026-04-26 07:44 42.72567 166.19558 33263 ft 571 kts 76°
2026-04-26 07:44 42.73517 166.30285 33255 ft 571 kts 76°
2026-04-26 07:45 42.74457 166.41014 33241 ft 571 kts 76°
2026-04-26 07:45 42.75386 166.51748 33295 ft 571 kts 76°
2026-04-26 07:46 42.76308 166.62500 33239 ft 572 kts 76°
2026-04-26 07:46 42.77219 166.73257 33236 ft 572 kts 77°
2026-04-26 07:47 42.78120 166.84019 33237 ft 572 kts 77°
2026-04-26 07:47 42.79011 166.94775 33224 ft 572 kts 77°
2026-04-26 07:48 42.79890 167.05526 33229 ft 571 kts 77°
2026-04-26 07:48 42.80760 167.16281 33228 ft 571 kts 77°
2026-04-26 07:49 42.81613 167.26955 33264 ft 571 kts 77°
2026-04-26 07:49 42.82464 167.37719 33219 ft 571 kts 77°
2026-04-26 07:50 42.83718 167.53851 33213 ft 571 kts 77°
2026-04-26 07:50 42.84542 167.64610 33225 ft 571 kts 78°
2026-04-26 07:51 42.85356 167.75374 33207 ft 571 kts 78°
2026-04-26 07:51 42.86159 167.86135 33209 ft 571 kts 78°
2026-04-26 07:52 42.86953 167.96908 33245 ft 571 kts 78°
2026-04-26 07:52 42.87738 168.07689 33207 ft 572 kts 78°
2026-04-26 07:53 42.88512 168.18470 33204 ft 571 kts 78°
2026-04-26 07:53 42.89275 168.29253 33198 ft 571 kts 78°
2026-04-26 07:54 42.90030 168.40037 33195 ft 572 kts 79°
2026-04-26 07:54 42.90773 168.50827 33196 ft 571 kts 79°
2026-04-26 07:55 42.91505 168.61605 33193 ft 570 kts 79°
2026-04-26 07:55 42.92227 168.72376 33191 ft 570 kts 79°
2026-04-26 07:56 42.92935 168.83084 33177 ft 570 kts 79°
2026-04-26 07:56 42.93636 168.93860 33181 ft 570 kts 80°
2026-04-26 07:57 42.94327 169.04632 33179 ft 570 kts 80°
2026-04-26 07:57 42.95009 169.15407 33177 ft 570 kts 80°
2026-04-26 07:58 42.95680 169.26197 33177 ft 570 kts 80°
2026-04-26 07:58 42.96342 169.36989 33174 ft 571 kts 80°
2026-04-26 07:59 42.96993 169.47783 33195 ft 571 kts 81°
2026-04-26 07:59 42.97636 169.58593 33175 ft 571 kts 81°
2026-04-26 08:00 42.98266 169.69395 33170 ft 570 kts 81°
2026-04-26 08:00 42.98888 169.80190 33187 ft 570 kts 81°
2026-04-26 08:01 42.99499 169.90982 33171 ft 570 kts 81°
2026-04-26 08:01 43.00197 170.01747 33163 ft 567 kts 76°
2026-04-26 08:02 43.01669 170.12265 33172 ft 563 kts 72°
2026-04-26 08:02 43.03256 170.22743 33170 ft 564 kts 73°
2026-04-26 08:03 43.04802 170.33248 33148 ft 564 kts 73°
2026-04-26 08:03 43.06302 170.43766 33146 ft 564 kts 74°
2026-04-26 08:04 43.07782 170.54295 33156 ft 563 kts 74°
2026-04-26 08:04 43.09253 170.64815 33148 ft 563 kts 74°
2026-04-26 08:05 43.10719 170.75351 33145 ft 563 kts 74°
2026-04-26 08:05 43.12176 170.85884 33140 ft 563 kts 74°
2026-04-26 08:06 43.13624 170.96426 33150 ft 564 kts 75°
2026-04-26 08:06 43.15053 171.06905 33133 ft 563 kts 75°
2026-04-26 08:07 43.16479 171.17448 33132 ft 563 kts 75°
2026-04-26 08:07 43.17904 171.28055 33121 ft 562 kts 75°
2026-04-26 08:08 43.19299 171.38513 33120 ft 562 kts 75°
2026-04-26 08:08 43.20694 171.49048 33123 ft 561 kts 75°
2026-04-26 08:09 43.22078 171.59583 33117 ft 561 kts 75°
2026-04-26 08:09 43.23452 171.70115 33129 ft 562 kts 76°
2026-04-26 08:10 43.24818 171.80666 33111 ft 562 kts 76°
2026-04-26 08:10 43.26174 171.91218 33111 ft 562 kts 76°
2026-04-26 08:11 43.27519 172.01766 33106 ft 561 kts 76°
2026-04-26 08:11 43.28855 172.12326 33104 ft 561 kts 76°
2026-04-26 08:12 43.30181 172.22885 33103 ft 561 kts 76°
2026-04-26 08:12 43.31496 172.33444 33101 ft 561 kts 76°
2026-04-26 08:13 43.32802 172.44007 33119 ft 561 kts 77°
2026-04-26 08:13 43.34099 172.54585 33100 ft 561 kts 77°
2026-04-26 08:14 43.35385 172.65155 33094 ft 561 kts 77°
2026-04-26 08:14 43.36660 172.75719 33090 ft 560 kts 77°
2026-04-26 08:15 43.37925 172.86283 33084 ft 560 kts 77°
2026-04-26 08:15 43.39179 172.96848 33085 ft 560 kts 77°
2026-04-26 08:16 43.40424 173.07410 33082 ft 560 kts 77°
2026-04-26 08:16 43.41659 173.17984 33086 ft 560 kts 78°
2026-04-26 08:17 43.42884 173.28559 33080 ft 560 kts 78°
2026-04-26 08:17 43.44101 173.39151 33109 ft 560 kts 78°
2026-04-26 08:18 43.45300 173.49679 33061 ft 560 kts 78°
2026-04-26 08:18 43.46495 173.60262 33067 ft 559 kts 78°
2026-04-26 08:19 43.47679 173.70836 33059 ft 558 kts 78°
2026-04-26 08:19 43.48850 173.81385 33053 ft 557 kts 78°
2026-04-26 08:20 43.50010 173.91928 33060 ft 556 kts 79°
2026-04-26 08:20 43.51161 174.02469 33049 ft 556 kts 79°
2026-04-26 08:21 43.52301 174.13010 33040 ft 556 kts 79°
2026-04-26 08:21 43.53430 174.23552 33036 ft 556 kts 79°
2026-04-26 08:22 43.54552 174.34105 33034 ft 557 kts 79°
2026-04-26 08:22 43.55663 174.44668 33034 ft 557 kts 79°
2026-04-26 08:23 43.56766 174.55237 33027 ft 557 kts 79°
2026-04-26 08:23 43.57860 174.65824 33027 ft 558 kts 79°
2026-04-26 08:24 43.58944 174.76414 33025 ft 558 kts 80°
2026-04-26 08:24 43.60018 174.87008 33015 ft 558 kts 80°
2026-04-26 08:25 43.61082 174.97602 33011 ft 557 kts 80°
2026-04-26 08:25 43.62136 175.08191 33008 ft 557 kts 80°
2026-04-26 08:26 43.63179 175.18781 33006 ft 557 kts 80°
2026-04-26 08:26 43.64213 175.29369 33002 ft 557 kts 80°
2026-04-26 08:27 43.65064 175.38173 33002 ft 557 kts 81°
2026-04-26 08:27 43.66079 175.48761 33000 ft 556 kts 81°
2026-04-26 08:28 43.67084 175.59355 32988 ft 556 kts 81°
2026-04-26 08:28 43.68079 175.69952 32989 ft 556 kts 81°
2026-04-26 08:29 43.69064 175.80547 32985 ft 556 kts 81°
2026-04-26 08:29 43.70039 175.91141 32983 ft 556 kts 81°
2026-04-26 08:30 43.71004 176.01732 32980 ft 556 kts 81°
2026-04-26 08:30 43.71958 176.12326 32976 ft 555 kts 82°
2026-04-26 08:31 43.72902 176.22918 32973 ft 555 kts 82°
2026-04-26 08:31 43.73836 176.33510 32968 ft 555 kts 82°
2026-04-26 08:32 43.74754 176.44018 32972 ft 554 kts 82°
2026-04-26 08:32 43.75667 176.54600 32967 ft 554 kts 82°
2026-04-26 08:33 43.76570 176.65175 32964 ft 554 kts 82°
2026-04-26 08:33 43.77463 176.75756 32965 ft 554 kts 82°
2026-04-26 08:34 43.78346 176.86335 32960 ft 554 kts 82°
2026-04-26 08:34 43.79220 176.96928 32975 ft 554 kts 83°
2026-04-26 08:35 43.80084 177.07518 32950 ft 553 kts 83°
2026-04-26 08:35 43.80936 177.18092 32943 ft 552 kts 83°
2026-04-26 08:36 43.81778 177.28651 32942 ft 551 kts 83°
2026-04-26 08:36 43.82609 177.39195 32946 ft 550 kts 83°
2026-04-26 08:37 43.83428 177.49727 32938 ft 550 kts 83°
2026-04-26 08:37 43.84236 177.60248 32937 ft 549 kts 83°
2026-04-26 08:38 43.85035 177.70769 32937 ft 549 kts 84°
2026-04-26 08:38 43.85824 177.81286 32933 ft 549 kts 84°
2026-04-26 08:39 43.86603 177.91811 32934 ft 549 kts 84°
2026-04-26 08:39 43.87373 178.02341 32929 ft 549 kts 84°
2026-04-26 08:40 43.88134 178.12885 32926 ft 550 kts 84°
2026-04-26 08:40 43.88885 178.23426 32928 ft 550 kts 84°
2026-04-26 08:41 43.89627 178.33981 32925 ft 550 kts 85°
2026-04-26 08:41 43.90360 178.44544 32918 ft 550 kts 85°
2026-04-26 08:42 43.91083 178.55109 32914 ft 550 kts 85°
2026-04-26 08:42 43.91795 178.65667 32916 ft 550 kts 85°
2026-04-26 08:43 43.92499 178.76239 32915 ft 550 kts 85°
2026-04-26 08:43 43.93193 178.86810 32894 ft 550 kts 86°
2026-04-26 08:44 43.93872 178.97312 32910 ft 550 kts 86°
2026-04-26 08:44 43.94547 179.07895 32911 ft 551 kts 86°
2026-04-26 08:45 43.95145 179.17414 32905 ft 551 kts 86°
2026-04-26 08:45 43.95801 179.28008 32899 ft 551 kts 86°
2026-04-26 08:46 43.96449 179.38612 32910 ft 551 kts 86°
2026-04-26 08:46 43.97086 179.49219 32900 ft 552 kts 86°
2026-04-26 08:47 43.97713 179.59827 32903 ft 552 kts 86°
2026-04-26 08:47 43.98332 179.70448 32895 ft 552 kts 87°
2026-04-26 08:48 43.98940 179.81062 32896 ft 551 kts 87°
2026-04-26 08:48 43.99539 179.91682 32892 ft 551 kts 87°
2026-04-26 08:49 44.00256 -179.97719 32865 ft 552 kts 82°
2026-04-26 08:49 44.01750 -179.87254 32897 ft 553 kts 79°
2026-04-26 08:50 44.03329 -179.76799 32932 ft 553 kts 79°
2026-04-26 08:50 44.04868 -179.66316 32890 ft 553 kts 80°
2026-04-26 08:51 44.07091 -179.50669 32880 ft 552 kts 80°
2026-04-26 08:52 44.08558 -179.40212 32883 ft 551 kts 80°
2026-04-26 08:52 44.10019 -179.29754 32878 ft 550 kts 80°
2026-04-26 08:53 44.11470 -179.19303 32861 ft 550 kts 81°
2026-04-26 08:53 44.12913 -179.08842 32878 ft 551 kts 81°
2026-04-26 08:54 44.14348 -178.98362 32873 ft 552 kts 81°
2026-04-26 08:54 44.15776 -178.87852 32870 ft 553 kts 81°
2026-04-26 08:55 44.17196 -178.77334 32871 ft 553 kts 81°
2026-04-26 08:55 44.18608 -178.66794 32871 ft 554 kts 81°
2026-04-26 08:56 44.20011 -178.56240 32865 ft 554 kts 81°
2026-04-26 08:56 44.21406 -178.45672 32837 ft 554 kts 82°
2026-04-26 08:57 44.22790 -178.35107 32858 ft 554 kts 82°
2026-04-26 08:57 44.24164 -178.24539 32856 ft 553 kts 82°
2026-04-26 08:58 44.25525 -178.13994 32851 ft 552 kts 82°
2026-04-26 08:58 44.26875 -178.03454 32848 ft 551 kts 82°
2026-04-26 08:59 44.28213 -177.92923 32863 ft 552 kts 83°
2026-04-26 08:59 44.29544 -177.82362 32848 ft 553 kts 83°
2026-04-26 09:00 44.30867 -177.71788 32846 ft 554 kts 83°
2026-04-26 09:00 44.32183 -177.61191 32848 ft 554 kts 83°
2026-04-26 09:01 44.33483 -177.50637 32853 ft 555 kts 83°
2026-04-26 09:01 44.34783 -177.39994 32851 ft 556 kts 83°
2026-04-26 09:02 44.36077 -177.29325 32819 ft 557 kts 83°
2026-04-26 09:02 44.37361 -177.18647 32840 ft 557 kts 84°
2026-04-26 09:03 44.38635 -177.07953 32884 ft 558 kts 84°
2026-04-26 09:03 44.39902 -176.97242 32838 ft 558 kts 84°
2026-04-26 09:04 44.41157 -176.86547 32836 ft 556 kts 84°
2026-04-26 09:04 44.42399 -176.75867 32828 ft 556 kts 84°
2026-04-26 09:05 44.43630 -176.65186 32831 ft 556 kts 84°
2026-04-26 09:05 44.44852 -176.54497 32799 ft 556 kts 85°
2026-04-26 09:06 44.46064 -176.43805 32831 ft 557 kts 85°
2026-04-26 09:06 44.47268 -176.33085 32836 ft 558 kts 85°
2026-04-26 09:07 44.48464 -176.22339 32826 ft 559 kts 85°
2026-04-26 09:07 44.49653 -176.11579 32814 ft 559 kts 85°
2026-04-26 09:08 44.50833 -176.00794 32826 ft 560 kts 85°
2026-04-26 09:08 44.52003 -175.90001 32829 ft 561 kts 85°
2026-04-26 09:09 44.53165 -175.79183 32826 ft 562 kts 86°
2026-04-26 09:09 44.54318 -175.68353 32843 ft 562 kts 86°
2026-04-26 09:10 44.55460 -175.57530 32827 ft 561 kts 86°
2026-04-26 09:10 44.56589 -175.46731 32820 ft 559 kts 86°
2026-04-26 09:11 44.57704 -175.35962 32818 ft 557 kts 86°
2026-04-26 09:11 44.58806 -175.25208 32825 ft 557 kts 86°
2026-04-26 09:12 44.59899 -175.14440 32823 ft 558 kts 86°
2026-04-26 09:12 44.60983 -175.03652 32783 ft 559 kts 87°
2026-04-26 09:13 44.61878 -174.94677 32832 ft 559 kts 87°
2026-04-26 09:13 44.62946 -174.83853 32831 ft 561 kts 87°
2026-04-26 09:14 44.64008 -174.72994 32826 ft 562 kts 87°
2026-04-26 09:14 44.65062 -174.62114 32799 ft 562 kts 88°
2026-04-26 09:15 44.66106 -174.51221 32823 ft 563 kts 88°
2026-04-26 09:15 44.67140 -174.40313 32840 ft 564 kts 88°
2026-04-26 09:16 44.68165 -174.29391 32829 ft 564 kts 88°
2026-04-26 09:16 44.69181 -174.18469 32820 ft 563 kts 89°
2026-04-26 09:17 44.70183 -174.07558 32818 ft 563 kts 89°
2026-04-26 09:17 44.71175 -173.96641 32822 ft 563 kts 89°
2026-04-26 09:18 44.72157 -173.85725 32795 ft 563 kts 90°
2026-04-26 09:18 44.73128 -173.74799 32822 ft 564 kts 90°
2026-04-26 09:19 44.74084 -173.63919 32832 ft 565 kts 90°
2026-04-26 09:19 44.75039 -173.52936 32775 ft 566 kts 90°
2026-04-26 09:20 44.75986 -173.41937 32827 ft 567 kts 90°
2026-04-26 09:20 44.76923 -173.30906 32827 ft 568 kts 91°
2026-04-26 09:21 44.77851 -173.19854 32826 ft 569 kts 91°
2026-04-26 09:21 44.78771 -173.08783 32805 ft 569 kts 91°
2026-04-26 09:22 44.79680 -172.97706 32838 ft 571 kts 91°
2026-04-26 09:22 44.80578 -172.86604 32828 ft 571 kts 91°
2026-04-26 09:23 44.81467 -172.75505 32768 ft 570 kts 92°
2026-04-26 09:23 44.82344 -172.64425 32832 ft 569 kts 92°
2026-04-26 09:24 44.83209 -172.53342 32849 ft 569 kts 92°
2026-04-26 09:24 44.84063 -172.42241 32839 ft 570 kts 92°
2026-04-26 09:25 44.84903 -172.31202 32800 ft 570 kts 93°
2026-04-26 09:25 44.85737 -172.20089 32834 ft 571 kts 93°
2026-04-26 09:26 44.86562 -172.08932 32841 ft 573 kts 93°
2026-04-26 09:26 44.87380 -171.97750 32836 ft 574 kts 93°
2026-04-26 09:27 44.88188 -171.86555 32832 ft 574 kts 93°
2026-04-26 09:27 44.88985 -171.75355 32837 ft 574 kts 94°
2026-04-26 09:28 44.89771 -171.64161 32840 ft 573 kts 94°
2026-04-26 09:28 44.90544 -171.52986 32807 ft 572 kts 94°
2026-04-26 09:29 44.91303 -171.41825 32844 ft 572 kts 95°
2026-04-26 09:29 44.92052 -171.30642 32844 ft 573 kts 95°
2026-04-26 09:30 44.92792 -171.19437 32763 ft 574 kts 95°
2026-04-26 09:30 44.93519 -171.08287 32839 ft 574 kts 96°
2026-04-26 09:31 44.94239 -170.97041 32849 ft 576 kts 96°
2026-04-26 09:31 44.94951 -170.85760 32850 ft 578 kts 96°
2026-04-26 09:32 44.95656 -170.74448 32814 ft 578 kts 97°
2026-04-26 09:32 44.96348 -170.63137 32846 ft 579 kts 97°
2026-04-26 09:33 44.97028 -170.51804 32849 ft 579 kts 97°
2026-04-26 09:33 44.97699 -170.40469 32769 ft 580 kts 97°
2026-04-26 09:34 44.98359 -170.29129 32852 ft 579 kts 97°
2026-04-26 09:34 44.99006 -170.17791 32853 ft 579 kts 97°
2026-04-26 09:35 44.99644 -170.06447 32856 ft 579 kts 97°
2026-04-26 09:35 44.99959 -170.00771 32745 ft 579 kts 98°
2026-04-26 09:35 45.00254 -169.95105 32784 ft 577 kts 99°
2026-04-26 09:36 45.00742 -169.83813 32855 ft 575 kts 99°
2026-04-26 09:36 45.01181 -169.72523 32853 ft 576 kts 99°
2026-04-26 09:37 45.01624 -169.61208 32793 ft 577 kts 99°
2026-04-26 09:37 45.02075 -169.49897 32856 ft 576 kts 99°
2026-04-26 09:38 45.02518 -169.38586 32857 ft 576 kts 99°
2026-04-26 09:38 45.02945 -169.27352 32858 ft 576 kts 99°
2026-04-26 09:39 45.03365 -169.15972 32820 ft 575 kts 99°
2026-04-26 09:39 45.03768 -169.04772 32856 ft 574 kts 100°
2026-04-26 09:40 45.04161 -168.93490 32898 ft 574 kts 100°
2026-04-26 09:40 45.04541 -168.82206 32778 ft 575 kts 100°
2026-04-26 09:41 45.04914 -168.70930 32855 ft 573 kts 100°
2026-04-26 09:41 45.05274 -168.59668 32862 ft 573 kts 100°
2026-04-26 09:42 45.05621 -168.48397 32872 ft 574 kts 100°
2026-04-26 09:42 45.05958 -168.37122 32822 ft 573 kts 99°
2026-04-26 09:43 45.06287 -168.25881 32860 ft 572 kts 99°
2026-04-26 09:43 45.06601 -168.14649 32864 ft 571 kts 100°
2026-04-26 09:44 45.06903 -168.03429 32864 ft 571 kts 100°
2026-04-26 09:44 45.07194 -167.92205 32862 ft 571 kts 100°
2026-04-26 09:45 45.07475 -167.80989 32867 ft 570 kts 100°
2026-04-26 09:45 45.07745 -167.69780 32865 ft 570 kts 100°
2026-04-26 09:46 45.08003 -167.58583 32844 ft 568 kts 99°
2026-04-26 09:46 45.08251 -167.47414 32863 ft 567 kts 99°
2026-04-26 09:47 45.08486 -167.36259 32872 ft 567 kts 100°
2026-04-26 09:47 45.08710 -167.25101 32812 ft 567 kts 100°
2026-04-26 09:48 45.08922 -167.13951 32865 ft 566 kts 99°
2026-04-26 09:48 45.09125 -167.02796 32871 ft 568 kts 99°
2026-04-26 09:49 45.09317 -166.91600 32873 ft 570 kts 99°
2026-04-26 09:49 45.09499 -166.80387 32826 ft 571 kts 98°
2026-04-26 09:50 45.09671 -166.69148 32867 ft 572 kts 98°
2026-04-26 09:50 45.09831 -166.57875 32871 ft 574 kts 98°
2026-04-26 09:51 45.09981 -166.46574 32867 ft 575 kts 98°
2026-04-26 09:51 45.10120 -166.35350 32872 ft 574 kts 98°
2026-04-26 09:52 45.10249 -166.24050 32868 ft 574 kts 98°
2026-04-26 09:52 45.10421 -166.07108 32870 ft 573 kts 98°
2026-04-26 09:53 45.10522 -165.95838 32876 ft 572 kts 98°
2026-04-26 09:53 45.10610 -165.84593 32862 ft 572 kts 98°
2026-04-26 09:54 45.10686 -165.73342 32871 ft 571 kts 98°
2026-04-26 09:54 45.10752 -165.62098 32816 ft 571 kts 98°
2026-04-26 09:55 45.10809 -165.50882 32870 ft 570 kts 98°
2026-04-26 09:55 45.10852 -165.39661 32870 ft 570 kts 98°
2026-04-26 09:56 45.10885 -165.28436 32870 ft 571 kts 98°
2026-04-26 09:56 45.10908 -165.17212 32870 ft 569 kts 98°
2026-04-26 09:57 45.10919 -165.06005 32871 ft 569 kts 98°
2026-04-26 09:57 45.10919 -164.94799 32879 ft 569 kts 98°
2026-04-26 09:58 45.10909 -164.83671 32837 ft 568 kts 98°
2026-04-26 09:58 45.10889 -164.72512 32878 ft 566 kts 98°
2026-04-26 09:59 45.10864 -164.63184 32887 ft 565 kts 98°
2026-04-26 09:59 45.10814 -164.50278 32888 ft 564 kts 98°
2026-04-26 10:00 45.10760 -164.39190 32897 ft 562 kts 98°
2026-04-26 10:00 45.10697 -164.28146 32898 ft 561 kts 98°
2026-04-26 10:01 45.10622 -164.17123 32901 ft 560 kts 98°
2026-04-26 10:01 45.10536 -164.06102 32911 ft 560 kts 98°
2026-04-26 10:02 45.10440 -163.95093 32922 ft 559 kts 98°
2026-04-26 10:02 45.10334 -163.84079 32920 ft 560 kts 98°
2026-04-26 10:03 45.10217 -163.73067 32928 ft 560 kts 98°
2026-04-26 10:03 45.10090 -163.62048 32933 ft 559 kts 98°
2026-04-26 10:04 45.09977 -163.52908 32935 ft 559 kts 98°
2026-04-26 10:04 45.09830 -163.41919 32955 ft 558 kts 98°
2026-04-26 10:05 45.09673 -163.30936 32959 ft 558 kts 98°
2026-04-26 10:05 45.09506 -163.19961 32970 ft 557 kts 98°
2026-04-26 10:06 45.09329 -163.09005 32964 ft 557 kts 98°
2026-04-26 10:06 45.09141 -162.98049 32980 ft 557 kts 98°
2026-04-26 10:07 45.08942 -162.87096 32940 ft 557 kts 98°
2026-04-26 10:07 45.08734 -162.76167 32985 ft 556 kts 98°
2026-04-26 10:08 45.08517 -162.65311 32992 ft 555 kts 98°
2026-04-26 10:08 45.08288 -162.54395 33008 ft 555 kts 98°
2026-04-26 10:09 45.08048 -162.43486 32995 ft 554 kts 97°
2026-04-26 10:09 45.07800 -162.32611 33012 ft 553 kts 98°
2026-04-26 10:10 45.07542 -162.21750 33027 ft 552 kts 98°
2026-04-26 10:10 45.07272 -162.10895 33026 ft 552 kts 98°
2026-04-26 10:11 45.06994 -162.00080 33031 ft 549 kts 97°
2026-04-26 10:11 45.06707 -161.89300 33038 ft 548 kts 97°
2026-04-26 10:12 45.06410 -161.78546 33040 ft 547 kts 97°
2026-04-26 10:12 45.06103 -161.67813 33019 ft 545 kts 97°
2026-04-26 10:13 45.05788 -161.57116 33052 ft 544 kts 97°
2026-04-26 10:13 45.05464 -161.46447 33062 ft 543 kts 97°
2026-04-26 10:14 45.05129 -161.35779 33074 ft 542 kts 97°
2026-04-26 10:14 45.04784 -161.25134 33080 ft 541 kts 97°
2026-04-26 10:15 45.04431 -161.14501 33094 ft 541 kts 97°
2026-04-26 10:15 45.04068 -161.03867 33093 ft 542 kts 97°
2026-04-26 10:16 45.03694 -160.93223 33109 ft 542 kts 97°
2026-04-26 10:16 45.03311 -160.82585 33101 ft 542 kts 96°
2026-04-26 10:17 45.02918 -160.71946 33113 ft 542 kts 97°
2026-04-26 10:17 45.02515 -160.61314 33125 ft 542 kts 97°
2026-04-26 10:18 45.02103 -160.50684 33103 ft 542 kts 96°
2026-04-26 10:18 45.01680 -160.40061 33124 ft 541 kts 96°
2026-04-26 10:19 45.01248 -160.29433 33125 ft 542 kts 96°
2026-04-26 10:19 45.00808 -160.18854 33138 ft 543 kts 97°
2026-04-26 10:20 45.00430 -160.09928 33137 ft 544 kts 97°
2026-04-26 10:20 44.99711 -159.97573 33141 ft 540 kts 103°
2026-04-26 10:21 44.98164 -159.87235 33153 ft 537 kts 107°
2026-04-26 10:21 44.96524 -159.76947 33148 ft 537 kts 107°
2026-04-26 10:22 44.94912 -159.66655 33144 ft 537 kts 106°
2026-04-26 10:22 44.93321 -159.56356 33176 ft 537 kts 106°
2026-04-26 10:23 44.91727 -159.46048 33162 ft 538 kts 106°
2026-04-26 10:23 44.90120 -159.35739 33156 ft 538 kts 106°
2026-04-26 10:24 44.88502 -159.25445 33179 ft 538 kts 106°
2026-04-26 10:24 44.86875 -159.15159 33189 ft 538 kts 106°
2026-04-26 10:25 44.85237 -159.04872 33189 ft 538 kts 106°
2026-04-26 10:25 44.83591 -158.94604 33189 ft 537 kts 106°
2026-04-26 10:26 44.81939 -158.84344 33200 ft 537 kts 106°
2026-04-26 10:26 44.80278 -158.74099 33202 ft 537 kts 106°
2026-04-26 10:27 44.78608 -158.63858 33202 ft 537 kts 106°
2026-04-26 10:27 44.76929 -158.53634 33215 ft 536 kts 106°
2026-04-26 10:28 44.75242 -158.43414 33221 ft 536 kts 106°
2026-04-26 10:28 44.73546 -158.33202 33221 ft 536 kts 106°
2026-04-26 10:29 44.71840 -158.23001 33219 ft 536 kts 106°
2026-04-26 10:29 44.70127 -158.12805 33230 ft 536 kts 106°
2026-04-26 10:30 44.68417 -158.02680 33227 ft 536 kts 106°
2026-04-26 10:30 44.66683 -157.92485 33226 ft 536 kts 105°
2026-04-26 10:31 44.64942 -157.82300 33242 ft 536 kts 105°
2026-04-26 10:31 44.63190 -157.72119 33243 ft 536 kts 105°
2026-04-26 10:32 44.61429 -157.61945 33245 ft 536 kts 106°
2026-04-26 10:32 44.59661 -157.51786 33242 ft 535 kts 105°
2026-04-26 10:33 44.57889 -157.41656 33252 ft 534 kts 105°
2026-04-26 10:33 44.56112 -157.31556 33255 ft 533 kts 105°
2026-04-26 10:34 44.54327 -157.21473 33238 ft 532 kts 105°
2026-04-26 10:34 44.52538 -157.11425 33256 ft 531 kts 105°
2026-04-26 10:35 44.50743 -157.01392 33257 ft 530 kts 105°
2026-04-26 10:35 44.48943 -156.91382 33262 ft 530 kts 105°
2026-04-26 10:36 44.47134 -156.81387 33256 ft 529 kts 105°
2026-04-26 10:36 44.45318 -156.71401 33263 ft 529 kts 105°
2026-04-26 10:37 44.43507 -156.61499 33262 ft 529 kts 105°
2026-04-26 10:37 44.41674 -156.51531 33266 ft 529 kts 105°
2026-04-26 10:38 44.39833 -156.41571 33270 ft 529 kts 105°
2026-04-26 10:38 44.37982 -156.31614 33269 ft 529 kts 106°
2026-04-26 10:39 44.36123 -156.21663 33272 ft 529 kts 106°
2026-04-26 10:39 44.34254 -156.11711 33270 ft 529 kts 105°
2026-04-26 10:40 44.32378 -156.01775 33279 ft 529 kts 106°
2026-04-26 10:40 44.30494 -155.91845 33281 ft 529 kts 106°
2026-04-26 10:41 44.28601 -155.81923 33283 ft 529 kts 106°
2026-04-26 10:41 44.26701 -155.72016 33281 ft 529 kts 105°
2026-04-26 10:42 44.25114 -155.63780 33287 ft 529 kts 106°
2026-04-26 10:42 44.22873 -155.52206 33291 ft 529 kts 106°
2026-04-26 10:43 44.20944 -155.42306 33288 ft 529 kts 105°
2026-04-26 10:43 44.19008 -155.32411 33297 ft 529 kts 105°
2026-04-26 10:44 44.17062 -155.22519 33297 ft 530 kts 106°
2026-04-26 10:44 44.15107 -155.12628 33298 ft 530 kts 106°
2026-04-26 10:45 44.13155 -155.02805 33293 ft 530 kts 105°
2026-04-26 10:45 44.11180 -154.92912 33296 ft 531 kts 105°
2026-04-26 10:46 44.09195 -154.83025 33302 ft 531 kts 105°
2026-04-26 10:46 44.07202 -154.73144 33318 ft 531 kts 105°
2026-04-26 10:47 44.05201 -154.63271 33307 ft 530 kts 105°
2026-04-26 10:47 44.03192 -154.53407 33306 ft 530 kts 105°
2026-04-26 10:48 44.01176 -154.43555 33323 ft 530 kts 105°
2026-04-26 10:48 43.99151 -154.33716 33310 ft 530 kts 105°
2026-04-26 10:49 43.97121 -154.23890 33313 ft 530 kts 105°
2026-04-26 10:49 43.95082 -154.14069 33330 ft 529 kts 105°
2026-04-26 10:50 43.93380 -154.05912 33312 ft 529 kts 105°
2026-04-26 10:50 43.90979 -153.94456 33324 ft 529 kts 105°
2026-04-26 10:51 43.87880 -153.79763 33330 ft 529 kts 105°
2026-04-26 10:52 43.86156 -153.71637 33333 ft 529 kts 105°
2026-04-26 10:52 43.84077 -153.61879 33330 ft 528 kts 105°
2026-04-26 10:53 43.81994 -153.52142 33337 ft 527 kts 105°
2026-04-26 10:53 43.79564 -153.40846 33359 ft 526 kts 105°
2026-04-26 10:54 43.76757 -153.27873 33339 ft 526 kts 105°
2026-04-26 10:54 43.74651 -153.18184 33337 ft 526 kts 105°
2026-04-26 10:55 43.72537 -153.08512 33332 ft 525 kts 105°
2026-04-26 10:55 43.70416 -152.98847 33334 ft 525 kts 105°
2026-04-26 10:56 43.68299 -152.89247 33335 ft 526 kts 105°
2026-04-26 10:56 43.66161 -152.79592 33334 ft 526 kts 106°
2026-04-26 10:57 43.64013 -152.69937 33343 ft 526 kts 105°
2026-04-26 10:57 43.61857 -152.60290 33332 ft 526 kts 105°
2026-04-26 10:58 43.59693 -152.50654 33335 ft 525 kts 105°
2026-04-26 10:58 43.57525 -152.41040 33340 ft 525 kts 105°
2026-04-26 10:59 43.55349 -152.31432 33335 ft 525 kts 105°
2026-04-26 10:59 43.53166 -152.21834 33335 ft 524 kts 105°
2026-04-26 11:00 43.50978 -152.12252 33335 ft 524 kts 105°
2026-04-26 11:00 43.48781 -152.02680 33338 ft 524 kts 105°
2026-04-26 11:01 43.46574 -151.93108 33332 ft 524 kts 105°
2026-04-26 11:01 43.44359 -151.83542 33331 ft 525 kts 105°
2026-04-26 11:02 43.42137 -151.73983 33343 ft 525 kts 105°
2026-04-26 11:02 43.39907 -151.64432 33326 ft 524 kts 105°
2026-04-26 11:03 43.37672 -151.54902 33326 ft 524 kts 105°
2026-04-26 11:03 43.35430 -151.45384 33326 ft 523 kts 105°
2026-04-26 11:04 43.33198 -151.35948 33327 ft 523 kts 105°
2026-04-26 11:04 43.30946 -151.26463 33319 ft 522 kts 105°
2026-04-26 11:05 43.28686 -151.16988 33321 ft 522 kts 105°
2026-04-26 11:05 43.26421 -151.07535 33331 ft 522 kts 105°
2026-04-26 11:06 43.24146 -150.98075 33319 ft 522 kts 105°
2026-04-26 11:06 43.21863 -150.88620 33322 ft 522 kts 105°
2026-04-26 11:07 43.19573 -150.79175 33322 ft 523 kts 105°
2026-04-26 11:07 43.17269 -150.69717 33321 ft 524 kts 105°
2026-04-26 11:08 43.14955 -150.60253 33315 ft 524 kts 105°
2026-04-26 11:08 43.12634 -150.50797 33316 ft 524 kts 105°
2026-04-26 11:09 43.10301 -150.41339 33322 ft 525 kts 104°
2026-04-26 11:09 43.07959 -150.31877 33310 ft 525 kts 104°
2026-04-26 11:10 43.05610 -150.22425 33309 ft 525 kts 105°
2026-04-26 11:10 43.03253 -150.12977 33322 ft 525 kts 104°
2026-04-26 11:11 43.00888 -150.03535 33311 ft 525 kts 104°
2026-04-26 11:11 42.98976 -149.93975 33309 ft 519 kts 96°
2026-04-26 11:12 42.97553 -149.84316 33309 ft 519 kts 96°
2026-04-26 11:12 42.96123 -149.74654 33307 ft 519 kts 96°
2026-04-26 11:13 42.94654 -149.65003 33306 ft 520 kts 97°
2026-04-26 11:13 42.93158 -149.55353 33304 ft 520 kts 97°
2026-04-26 11:14 42.91661 -149.45767 33305 ft 520 kts 97°
2026-04-26 11:14 42.90148 -149.36128 33309 ft 520 kts 96°
2026-04-26 11:15 42.88618 -149.26423 33307 ft 520 kts 96°
2026-04-26 11:15 42.87102 -149.16858 33301 ft 519 kts 97°
2026-04-26 11:16 42.85568 -149.07239 33318 ft 519 kts 96°
2026-04-26 11:16 42.84027 -148.97634 33301 ft 519 kts 96°
2026-04-26 11:17 42.82480 -148.88039 33298 ft 518 kts 96°
2026-04-26 11:17 42.80927 -148.78461 33288 ft 518 kts 96°
2026-04-26 11:18 42.79366 -148.68895 33293 ft 517 kts 96°
2026-04-26 11:18 42.77798 -148.59339 33291 ft 517 kts 96°
2026-04-26 11:19 42.76225 -148.49798 33295 ft 516 kts 96°
2026-04-26 11:19 42.74644 -148.40271 33313 ft 516 kts 95°
2026-04-26 11:20 42.73325 -148.32355 33299 ft 516 kts 96°
2026-04-26 11:20 42.71472 -148.21301 33288 ft 516 kts 96°
2026-04-26 11:21 42.69871 -148.11806 33294 ft 515 kts 96°
2026-04-26 11:21 42.68263 -148.02319 33317 ft 515 kts 95°
2026-04-26 11:22 42.66648 -147.92840 33298 ft 514 kts 95°
2026-04-26 11:22 42.65027 -147.83384 33294 ft 514 kts 95°
2026-04-26 11:23 42.63400 -147.73943 33294 ft 513 kts 95°
2026-04-26 11:23 42.61770 -147.64522 33284 ft 512 kts 95°
2026-04-26 11:24 42.60132 -147.55116 33288 ft 512 kts 95°
2026-04-26 11:24 42.58489 -147.45728 33288 ft 511 kts 95°
2026-04-26 11:25 42.56839 -147.36345 33312 ft 511 kts 95°
2026-04-26 11:25 42.55180 -147.26960 33291 ft 512 kts 95°
2026-04-26 11:26 42.53514 -147.17586 33291 ft 511 kts 95°
2026-04-26 11:26 42.51852 -147.08281 33291 ft 511 kts 95°
2026-04-26 11:27 42.50171 -146.98916 33293 ft 512 kts 95°
2026-04-26 11:27 42.48481 -146.89551 33291 ft 512 kts 95°
2026-04-26 11:28 42.46784 -146.80195 33296 ft 511 kts 95°
2026-04-26 11:28 42.45080 -146.70846 33307 ft 511 kts 95°
2026-04-26 11:29 42.43367 -146.61493 33302 ft 512 kts 94°
2026-04-26 11:29 42.41648 -146.52135 33302 ft 512 kts 94°
2026-04-26 11:30 42.40209 -146.44363 33297 ft 512 kts 94°
2026-04-26 11:30 42.38178 -146.33444 33299 ft 512 kts 94°
2026-04-26 11:31 42.36435 -146.24113 33297 ft 512 kts 94°
2026-04-26 11:31 42.34684 -146.14784 33304 ft 512 kts 94°
2026-04-26 11:32 42.32925 -146.05462 33307 ft 512 kts 95°
2026-04-26 11:32 42.31158 -145.96138 33309 ft 512 kts 94°
2026-04-26 11:33 42.29384 -145.86827 33303 ft 512 kts 94°
2026-04-26 11:33 42.27603 -145.77528 33304 ft 511 kts 94°
2026-04-26 11:34 42.25816 -145.68239 33339 ft 511 kts 94°
2026-04-26 11:34 42.24035 -145.59017 33322 ft 511 kts 94°
2026-04-26 11:35 42.22236 -145.49753 33310 ft 510 kts 94°
2026-04-26 11:35 42.20725 -145.42005 33326 ft 510 kts 94°
2026-04-26 11:36 42.18622 -145.31267 33322 ft 509 kts 94°
2026-04-26 11:36 42.16805 -145.22041 33318 ft 509 kts 94°
2026-04-26 11:37 42.14985 -145.12840 33326 ft 508 kts 93°
2026-04-26 11:37 42.13160 -145.03656 33374 ft 507 kts 93°
2026-04-26 11:38 42.11329 -144.94489 33324 ft 506 kts 93°
2026-04-26 11:38 42.09497 -144.85357 33320 ft 504 kts 93°
2026-04-26 11:39 42.07664 -144.76257 33324 ft 503 kts 93°
2026-04-26 11:39 42.05827 -144.67181 33350 ft 503 kts 92°
2026-04-26 11:40 42.03985 -144.58111 33334 ft 502 kts 92°
2026-04-26 11:40 42.02137 -144.49057 33332 ft 502 kts 92°
2026-04-26 11:42 41.94989 -144.14412 33339 ft 502 kts 92°
2026-04-26 11:43 41.93106 -144.05385 33390 ft 502 kts 92°
2026-04-26 11:43 41.91215 -143.96352 33346 ft 503 kts 92°
2026-04-26 11:44 41.89315 -143.87325 33341 ft 503 kts 92°
2026-04-26 11:44 41.87408 -143.78301 33375 ft 502 kts 92°
2026-04-26 11:45 41.85496 -143.69283 33355 ft 503 kts 92°
2026-04-26 11:45 41.83575 -143.60273 33345 ft 502 kts 93°
2026-04-26 11:46 41.81652 -143.51292 33340 ft 501 kts 93°
2026-04-26 11:46 41.79727 -143.42338 33347 ft 500 kts 93°
2026-04-26 11:47 41.77798 -143.33387 33352 ft 500 kts 93°
2026-04-26 11:47 41.75859 -143.24440 33349 ft 500 kts 93°
2026-04-26 11:48 41.73911 -143.15490 33350 ft 500 kts 94°
2026-04-26 11:48 41.71957 -143.06547 33352 ft 501 kts 94°
2026-04-26 11:49 41.69995 -142.97603 33347 ft 501 kts 94°
2026-04-26 11:49 41.68023 -142.88655 33351 ft 502 kts 94°
2026-04-26 11:50 41.66056 -142.79763 33349 ft 502 kts 94°
2026-04-26 11:50 41.64067 -142.70808 33353 ft 503 kts 95°
2026-04-26 11:51 41.62066 -142.61838 33351 ft 504 kts 95°
2026-04-26 11:51 41.60057 -142.52871 33347 ft 504 kts 95°
2026-04-26 11:52 41.58041 -142.43912 33380 ft 504 kts 96°
2026-04-26 11:52 41.56016 -142.34949 33352 ft 505 kts 96°
2026-04-26 11:53 41.53985 -142.25987 33351 ft 504 kts 96°
2026-04-26 11:54 41.50926 -142.12571 33380 ft 504 kts 98°
2026-04-26 11:54 41.48878 -142.03634 33341 ft 503 kts 97°
2026-04-26 11:55 41.46828 -141.94711 33339 ft 503 kts 98°
2026-04-26 11:55 41.44772 -141.85805 33339 ft 503 kts 98°
2026-04-26 11:56 41.42709 -141.76903 33353 ft 503 kts 99°
2026-04-26 11:56 41.40653 -141.68070 33345 ft 503 kts 99°
2026-04-26 11:57 41.38577 -141.59182 33339 ft 502 kts 99°
2026-04-26 11:57 41.36496 -141.50309 33373 ft 502 kts 100°
2026-04-26 11:58 41.34407 -141.41434 33341 ft 502 kts 100°
2026-04-26 11:58 41.32312 -141.32577 33337 ft 502 kts 100°
2026-04-26 11:59 41.30211 -141.23723 33335 ft 502 kts 100°
2026-04-26 11:59 41.28106 -141.14881 33338 ft 501 kts 102°
2026-04-26 12:00 41.25996 -141.06063 33351 ft 500 kts 103°
2026-04-26 12:00 41.23885 -140.97288 33335 ft 497 kts 103°
2026-04-26 12:01 41.21788 -140.88570 33353 ft 494 kts 104°
2026-04-26 12:01 41.19692 -140.79900 33326 ft 492 kts 104°
2026-04-26 12:02 41.17600 -140.71282 33327 ft 490 kts 104°
2026-04-26 12:02 41.15507 -140.62693 33325 ft 489 kts 104°
2026-04-26 12:03 41.13409 -140.54115 33334 ft 489 kts 105°
2026-04-26 12:03 41.11320 -140.45602 33327 ft 488 kts 105°
2026-04-26 12:04 41.09212 -140.37043 33323 ft 488 kts 105°
2026-04-26 12:04 41.07099 -140.28499 33323 ft 488 kts 105°
2026-04-26 12:05 41.04982 -140.19961 33324 ft 487 kts 106°
2026-04-26 12:05 41.02859 -140.11439 33318 ft 487 kts 106°
2026-04-26 12:06 41.00737 -140.02941 33317 ft 486 kts 106°
2026-04-26 12:06 40.99043 -139.94324 33325 ft 482 kts 98°
2026-04-26 12:07 40.97753 -139.85616 33321 ft 482 kts 98°
2026-04-26 12:07 40.96454 -139.76913 33324 ft 482 kts 99°
2026-04-26 12:08 40.95136 -139.68296 33309 ft 481 kts 99°
2026-04-26 12:08 40.93795 -139.59649 33320 ft 479 kts 100°
2026-04-26 12:09 40.92448 -139.51035 33303 ft 478 kts 100°
2026-04-26 12:09 40.91099 -139.42443 33306 ft 477 kts 101°
2026-04-26 12:10 40.89748 -139.33870 33305 ft 476 kts 100°
2026-04-26 12:10 40.88391 -139.25306 33312 ft 476 kts 101°
2026-04-26 12:11 40.87030 -139.16761 33301 ft 475 kts 101°
2026-04-26 12:11 40.85664 -139.08225 33300 ft 475 kts 101°
2026-04-26 12:12 40.84295 -138.99707 33310 ft 473 kts 102°
2026-04-26 12:12 40.82927 -138.91235 33299 ft 470 kts 102°
2026-04-26 12:13 40.81560 -138.82821 33293 ft 468 kts 102°
2026-04-26 12:13 40.80191 -138.74450 33293 ft 465 kts 102°
2026-04-26 12:14 40.78822 -138.66105 33285 ft 466 kts 102°
2026-04-26 12:14 40.77446 -138.57752 33301 ft 466 kts 103°
2026-04-26 12:15 40.76064 -138.49411 33284 ft 465 kts 103°
2026-04-26 12:15 40.74679 -138.41088 33287 ft 464 kts 103°
2026-04-26 12:16 40.73292 -138.32796 33280 ft 463 kts 103°
2026-04-26 12:16 40.71899 -138.24501 33287 ft 463 kts 103°
2026-04-26 12:17 40.70501 -138.16215 33274 ft 463 kts 103°
2026-04-26 12:17 40.69098 -138.07945 33273 ft 462 kts 104°
2026-04-26 12:18 40.67692 -137.99693 33276 ft 461 kts 104°
2026-04-26 12:18 40.66292 -137.91510 33271 ft 461 kts 104°
2026-04-26 12:19 40.64877 -137.83277 33273 ft 461 kts 104°
2026-04-26 12:19 40.63456 -137.75048 33268 ft 461 kts 104°
2026-04-26 12:20 40.62028 -137.66820 33278 ft 461 kts 104°
2026-04-26 12:20 40.60594 -137.58587 33260 ft 462 kts 104°
2026-04-26 12:21 40.59154 -137.50360 33262 ft 462 kts 104°
2026-04-26 12:21 40.57707 -137.42133 33268 ft 461 kts 104°
2026-04-26 12:22 40.56257 -137.33922 33263 ft 461 kts 104°
2026-04-26 12:22 40.54802 -137.25714 33259 ft 461 kts 104°
2026-04-26 12:23 40.53341 -137.17518 33249 ft 460 kts 105°
2026-04-26 12:23 40.51873 -137.09317 33255 ft 461 kts 104°
2026-04-26 12:24 40.50400 -137.01117 33252 ft 461 kts 105°
2026-04-26 12:24 40.48920 -136.92924 33245 ft 462 kts 105°
2026-04-26 12:25 40.46689 -136.80631 33244 ft 461 kts 104°
2026-04-26 12:25 40.45194 -136.72437 33241 ft 462 kts 105°
2026-04-26 12:26 40.43694 -136.64250 33245 ft 461 kts 105°
2026-04-26 12:26 40.42188 -136.56076 33246 ft 461 kts 104°
2026-04-26 12:27 40.40675 -136.47889 33247 ft 462 kts 105°
2026-04-26 12:27 40.39156 -136.39705 33243 ft 462 kts 105°
2026-04-26 12:28 40.37631 -136.31525 33240 ft 462 kts 105°
2026-04-26 12:28 40.36110 -136.23400 33232 ft 462 kts 105°
2026-04-26 12:29 40.34574 -136.15230 33243 ft 461 kts 105°
2026-04-26 12:30 40.32259 -136.02978 33246 ft 461 kts 105°
2026-04-26 12:30 40.30709 -135.94821 33224 ft 462 kts 105°
2026-04-26 12:31 40.28373 -135.82588 33233 ft 461 kts 106°
2026-04-26 12:31 40.26810 -135.74449 33212 ft 461 kts 105°
2026-04-26 12:32 40.25507 -135.67684 33228 ft 461 kts 106°
2026-04-26 12:33 40.23147 -135.55494 33222 ft 460 kts 106°
2026-04-26 12:33 40.21567 -135.47376 33221 ft 460 kts 106°
2026-04-26 12:34 40.19981 -135.39261 33219 ft 460 kts 106°
2026-04-26 12:34 40.18391 -135.31154 33211 ft 460 kts 106°
2026-04-26 12:35 40.16794 -135.23047 33209 ft 460 kts 107°
2026-04-26 12:35 40.15193 -135.14947 33208 ft 460 kts 106°
2026-04-26 12:36 40.13584 -135.06845 33203 ft 461 kts 106°
2026-04-26 12:36 40.11970 -134.98746 33210 ft 460 kts 107°
2026-04-26 12:37 40.10351 -134.90654 33195 ft 461 kts 106°
2026-04-26 12:37 40.08722 -134.82548 33200 ft 462 kts 106°
2026-04-26 12:38 40.07087 -134.74445 33194 ft 461 kts 106°
2026-04-26 12:38 40.05448 -134.66350 33193 ft 461 kts 106°
2026-04-26 12:39 40.03803 -134.58256 33193 ft 461 kts 107°
2026-04-26 12:39 40.02152 -134.50168 33192 ft 462 kts 107°
2026-04-26 12:40 40.00490 -134.42056 33190 ft 463 kts 107°
2026-04-26 12:40 39.98822 -134.33945 33179 ft 463 kts 107°
2026-04-26 12:41 39.97157 -134.25886 33179 ft 464 kts 106°
2026-04-26 12:41 39.95472 -134.17753 33178 ft 465 kts 106°
2026-04-26 12:42 39.93778 -134.09610 33171 ft 466 kts 105°
2026-04-26 12:42 39.92078 -134.01469 33174 ft 466 kts 106°
2026-04-26 12:43 39.90370 -133.93325 33173 ft 466 kts 107°
2026-04-26 12:43 39.88658 -133.85190 33167 ft 466 kts 107°
2026-04-26 12:44 39.86938 -133.77050 33173 ft 467 kts 107°
2026-04-26 12:44 39.85210 -133.68904 33165 ft 467 kts 107°
2026-04-26 12:45 39.83476 -133.60762 33161 ft 467 kts 106°
2026-04-26 12:45 39.81733 -133.52607 33164 ft 468 kts 106°
2026-04-26 12:46 39.79982 -133.44441 33164 ft 469 kts 106°
2026-04-26 12:46 39.78222 -133.36265 33161 ft 470 kts 106°
2026-04-26 12:47 39.76453 -133.28084 33153 ft 470 kts 106°
2026-04-26 12:47 39.74691 -133.19960 33150 ft 470 kts 106°
2026-04-26 12:48 39.72913 -133.11793 33148 ft 470 kts 106°
2026-04-26 12:48 39.71130 -133.03638 33146 ft 469 kts 106°
2026-04-26 12:49 39.69342 -132.95487 33143 ft 469 kts 106°
2026-04-26 12:49 39.67548 -132.87340 33142 ft 470 kts 106°
2026-04-26 12:50 39.65745 -132.79185 33139 ft 470 kts 106°
2026-04-26 12:50 39.63933 -132.71016 33142 ft 471 kts 106°
2026-04-26 12:51 39.62112 -132.62837 33140 ft 473 kts 106°
2026-04-26 12:51 39.60281 -132.54640 33136 ft 473 kts 106°
2026-04-26 12:52 39.58443 -132.46444 33135 ft 474 kts 106°
2026-04-26 12:52 39.56597 -132.38248 33125 ft 474 kts 106°
2026-04-26 12:53 39.54744 -132.30046 33127 ft 474 kts 106°
2026-04-26 12:53 39.52887 -132.21853 33126 ft 474 kts 106°
2026-04-26 12:54 39.51023 -132.13665 33124 ft 474 kts 106°
2026-04-26 12:54 39.49152 -132.05475 33117 ft 475 kts 105°
2026-04-26 12:55 39.47268 -131.97253 33124 ft 477 kts 106°
2026-04-26 12:55 39.45372 -131.89011 33116 ft 479 kts 106°
2026-04-26 12:56 39.43466 -131.80755 33110 ft 479 kts 106°
2026-04-26 12:56 39.41564 -131.72549 33110 ft 480 kts 106°
2026-04-26 12:57 39.39645 -131.64294 33105 ft 479 kts 105°
2026-04-26 12:57 39.37718 -131.56043 33103 ft 479 kts 105°
2026-04-26 12:58 39.34824 -131.43695 33102 ft 478 kts 105°
2026-04-26 12:58 39.32886 -131.35463 33105 ft 480 kts 105°
2026-04-26 12:59 39.30934 -131.27205 33108 ft 482 kts 105°
2026-04-26 12:59 39.28969 -131.18916 33102 ft 483 kts 106°
2026-04-26 13:00 39.26994 -131.10624 33093 ft 484 kts 105°
2026-04-26 13:00 39.25011 -131.02314 33098 ft 485 kts 105°
2026-04-26 13:01 39.23020 -130.94005 33091 ft 484 kts 106°
2026-04-26 13:01 39.21027 -130.85726 33084 ft 483 kts 106°
2026-04-26 13:02 39.19031 -130.77451 33088 ft 483 kts 105°
2026-04-26 13:02 39.17042 -130.69237 33091 ft 483 kts 106°
2026-04-26 13:03 39.15035 -130.60981 33080 ft 483 kts 105°
2026-04-26 13:03 39.13019 -130.52715 33079 ft 484 kts 106°
2026-04-26 13:04 39.10997 -130.44454 33077 ft 484 kts 106°
2026-04-26 13:04 39.08970 -130.36203 33074 ft 483 kts 105°
2026-04-26 13:05 39.06938 -130.27955 33075 ft 484 kts 105°
2026-04-26 13:05 39.04900 -130.19712 33072 ft 483 kts 106°
2026-04-26 13:06 39.02859 -130.11482 33065 ft 483 kts 106°
2026-04-26 13:06 39.00810 -130.03247 33062 ft 483 kts 105°
2026-04-26 13:07 38.98704 -129.95044 33060 ft 484 kts 107°
2026-04-26 13:07 38.96451 -129.86897 33059 ft 483 kts 108°
2026-04-26 13:08 38.94177 -129.78770 33061 ft 483 kts 108°
2026-04-26 13:08 38.91916 -129.70635 33056 ft 484 kts 108°
2026-04-26 13:09 38.89674 -129.62548 33058 ft 484 kts 108°
2026-04-26 13:09 38.87414 -129.54408 33055 ft 484 kts 108°
2026-04-26 13:10 38.85145 -129.46268 33049 ft 484 kts 108°
2026-04-26 13:10 38.82870 -129.38134 33052 ft 485 kts 108°
2026-04-26 13:11 38.80588 -129.29999 33050 ft 485 kts 108°
2026-04-26 13:11 38.78304 -129.21882 33046 ft 484 kts 108°
2026-04-26 13:12 38.76013 -129.13766 33041 ft 484 kts 108°
2026-04-26 13:12 38.73715 -129.05653 33041 ft 485 kts 108°
2026-04-26 13:13 38.71411 -128.97541 33039 ft 485 kts 108°
2026-04-26 13:13 38.69100 -128.89429 33030 ft 485 kts 108°
2026-04-26 13:14 38.66784 -128.81327 33038 ft 485 kts 108°
2026-04-26 13:14 38.64462 -128.73225 33034 ft 485 kts 108°
2026-04-26 13:15 38.62131 -128.65118 33029 ft 485 kts 109°
2026-04-26 13:15 38.60190 -128.58388 33032 ft 485 kts 109°
2026-04-26 13:16 38.57471 -128.48984 33035 ft 485 kts 109°
2026-04-26 13:16 38.55121 -128.40888 33019 ft 486 kts 109°
2026-04-26 13:17 38.51584 -128.28744 33016 ft 487 kts 109°
2026-04-26 13:18 38.48029 -128.16593 33033 ft 487 kts 109°
2026-04-26 13:19 38.44458 -128.04444 33033 ft 488 kts 109°
2026-04-26 13:19 38.42071 -127.96350 33019 ft 488 kts 109°
2026-04-26 13:20 38.39675 -127.88252 33015 ft 488 kts 109°
2026-04-26 13:20 38.37273 -127.80161 33018 ft 488 kts 109°
2026-04-26 13:21 38.34866 -127.72074 33014 ft 488 kts 109°
2026-04-26 13:21 38.32452 -127.63988 33011 ft 488 kts 109°
2026-04-26 13:22 38.30032 -127.55905 33007 ft 488 kts 109°
2026-04-26 13:22 38.28017 -127.49194 33008 ft 488 kts 109°
2026-04-26 13:23 38.25587 -127.41120 33007 ft 489 kts 109°
2026-04-26 13:23 38.23145 -127.33033 33007 ft 490 kts 109°
2026-04-26 13:24 38.20697 -127.24949 33004 ft 490 kts 109°
2026-04-26 13:24 38.18240 -127.16856 33009 ft 491 kts 109°
2026-04-26 13:25 38.15775 -127.08757 33005 ft 491 kts 110°
2026-04-26 13:25 38.13320 -127.00654 33000 ft 491 kts 108°
2026-04-26 13:26 38.11532 -126.92302 33006 ft 490 kts 101°
2026-04-26 13:26 38.09994 -126.84041 32991 ft 491 kts 102°
2026-04-26 13:27 38.08399 -126.75609 32991 ft 491 kts 102°
2026-04-26 13:27 38.06775 -126.67190 33001 ft 492 kts 102°
2026-04-26 13:28 38.05133 -126.58763 32997 ft 492 kts 102°
2026-04-26 13:28 38.03484 -126.50342 32985 ft 492 kts 102°
2026-04-26 13:29 38.01829 -126.41911 32988 ft 493 kts 102°
2026-04-26 13:29 38.00167 -126.33481 32990 ft 493 kts 102°
2026-04-26 13:30 37.98499 -126.25052 32996 ft 493 kts 102°
2026-04-26 13:30 37.96822 -126.16613 32983 ft 494 kts 102°
2026-04-26 13:31 37.95137 -126.08167 32988 ft 494 kts 103°
2026-04-26 13:31 37.93446 -125.99726 32984 ft 494 kts 103°
2026-04-26 13:32 37.91750 -125.91293 32983 ft 494 kts 103°
2026-04-26 13:32 37.90048 -125.82865 32983 ft 494 kts 103°
2026-04-26 13:33 37.88341 -125.74448 32993 ft 493 kts 103°
2026-04-26 13:33 37.86628 -125.66031 32984 ft 494 kts 103°
2026-04-26 13:34 37.84919 -125.57667 32977 ft 494 kts 103°
2026-04-26 13:34 37.83193 -125.49252 32989 ft 495 kts 103°
2026-04-26 13:35 37.81457 -125.40823 32977 ft 495 kts 103°
2026-04-26 13:35 37.79701 -125.32332 32976 ft 496 kts 103°
2026-04-26 13:36 37.77950 -125.23899 32988 ft 496 kts 103°
2026-04-26 13:36 37.76192 -125.15463 32974 ft 497 kts 103°
2026-04-26 13:37 37.74426 -125.07019 32973 ft 497 kts 103°
2026-04-26 13:37 37.72651 -124.98570 32983 ft 497 kts 103°
2026-04-26 13:38 37.70870 -124.90121 32966 ft 498 kts 104°
2026-04-26 13:38 37.69080 -124.81668 32968 ft 498 kts 104°
2026-04-26 13:39 37.67297 -124.73274 32969 ft 498 kts 104°
2026-04-26 13:39 37.65495 -124.64825 32969 ft 499 kts 104°
2026-04-26 13:40 37.63686 -124.56376 32968 ft 499 kts 104°
2026-04-26 13:40 37.61870 -124.47925 32963 ft 499 kts 104°
2026-04-26 13:41 37.60046 -124.39471 32964 ft 500 kts 104°
2026-04-26 13:41 37.58214 -124.31011 32957 ft 500 kts 104°
2026-04-26 13:42 37.56377 -124.22562 32960 ft 500 kts 104°
2026-04-26 13:42 37.54532 -124.14107 32961 ft 501 kts 104°
2026-04-26 13:43 37.52679 -124.05647 32960 ft 501 kts 104°
2026-04-26 13:43 37.50819 -123.97185 32954 ft 501 kts 104°
2026-04-26 13:44 37.48953 -123.88729 32960 ft 502 kts 105°
2026-04-26 13:44 37.47077 -123.80257 32957 ft 502 kts 105°
2026-04-26 13:45 37.45194 -123.71789 32952 ft 502 kts 105°
2026-04-26 13:45 37.43306 -123.63325 32949 ft 503 kts 105°
2026-04-26 13:46 37.41411 -123.54863 32950 ft 502 kts 105°
2026-04-26 13:46 37.39511 -123.46412 32952 ft 502 kts 105°
2026-04-26 13:47 37.37604 -123.37960 32958 ft 502 kts 105°
2026-04-26 13:47 37.35693 -123.29521 32935 ft 502 kts 105°
2026-04-26 13:48 37.33777 -123.21090 32953 ft 501 kts 105°
2026-04-26 13:48 37.31857 -123.12670 32955 ft 501 kts 105°
2026-04-26 13:49 37.29932 -123.04259 32951 ft 501 kts 105°
2026-04-26 13:49 37.28005 -122.95862 32953 ft 501 kts 105°
2026-04-26 13:50 37.25777 -122.87590 32950 ft 500 kts 115°
2026-04-26 13:50 37.22436 -122.80024 32938 ft 500 kts 126°
2026-04-26 13:51 37.18418 -122.72903 32944 ft 500 kts 126°
2026-04-26 13:51 37.14391 -122.65794 32930 ft 500 kts 126°
2026-04-26 13:52 37.10384 -122.58662 32948 ft 501 kts 126°
2026-04-26 13:52 37.06383 -122.51516 32946 ft 501 kts 126°
2026-04-26 13:53 37.02378 -122.44370 32948 ft 502 kts 126°
2026-04-26 13:53 36.98370 -122.37226 32951 ft 502 kts 126°
2026-04-26 13:54 36.94361 -122.30081 32957 ft 502 kts 126°
2026-04-26 13:54 36.90355 -122.22929 32956 ft 502 kts 126°
2026-04-26 13:55 36.85029 -122.13417 32959 ft 502 kts 126°
2026-04-26 13:56 36.78362 -122.01513 32961 ft 501 kts 126°
2026-04-26 13:56 36.74377 -121.94384 32965 ft 501 kts 126°
2026-04-26 13:57 36.70400 -121.87267 32963 ft 500 kts 126°
2026-04-26 13:57 36.66428 -121.80159 32965 ft 500 kts 126°
2026-04-26 13:58 36.62460 -121.73055 32964 ft 500 kts 126°
2026-04-26 13:58 36.58495 -121.65956 32967 ft 499 kts 126°
2026-04-26 13:59 36.54557 -121.58924 32969 ft 499 kts 126°
2026-04-26 13:59 36.50591 -121.51849 32983 ft 498 kts 126°
2026-04-26 14:00 36.42686 -121.37715 32978 ft 498 kts 126°
2026-04-26 14:01 36.38735 -121.30650 32980 ft 498 kts 126°
2026-04-26 14:01 36.34785 -121.23586 32984 ft 498 kts 126°
2026-04-26 14:02 36.30839 -121.16507 32975 ft 499 kts 126°
2026-04-26 14:02 36.26905 -121.09431 32975 ft 499 kts 126°
2026-04-26 14:03 36.22974 -121.02353 32972 ft 499 kts 126°
2026-04-26 14:03 36.18988 -120.95343 32964 ft 494 kts 132°
2026-04-26 14:04 36.14213 -120.89260 32992 ft 494 kts 136°
2026-04-26 14:04 36.09622 -120.82915 32985 ft 497 kts 130°
2026-04-26 14:05 36.05424 -120.76085 32981 ft 499 kts 127°
2026-04-26 14:05 36.01371 -120.69116 32983 ft 499 kts 127°
2026-04-26 14:06 35.97329 -120.62205 32982 ft 500 kts 128°
2026-04-26 14:06 35.93229 -120.55285 32983 ft 500 kts 128°
2026-04-26 14:07 35.89117 -120.48379 32963 ft 499 kts 128°
2026-04-26 14:07 35.85009 -120.41492 32994 ft 498 kts 128°
2026-04-26 14:08 35.80902 -120.34616 32992 ft 498 kts 128°
2026-04-26 14:08 35.76788 -120.27743 32989 ft 499 kts 128°
2026-04-26 14:09 35.72671 -120.20874 32973 ft 499 kts 128°
2026-04-26 14:09 35.68544 -120.14004 32971 ft 499 kts 128°
2026-04-26 14:10 35.64641 -120.08909 32961 ft 488 kts 150°
2026-04-26 14:10 35.58802 -120.04729 32981 ft 488 kts 153°
2026-04-26 14:11 35.50014 -119.98297 32986 ft 493 kts 152°
2026-04-26 14:11 35.44160 -119.93885 32971 ft 494 kts 152°
2026-04-26 14:12 35.38298 -119.89474 32967 ft 494 kts 152°
2026-04-26 14:12 35.32438 -119.85082 32981 ft 493 kts 152°
2026-04-26 14:13 35.26694 -119.80646 32582 ft 484 kts 148°
2026-04-26 14:13 35.24003 -119.78192 32083 ft 481 kts 145°
2026-04-26 14:13 35.21391 -119.75662 31582 ft 477 kts 144°
2026-04-26 14:14 35.18816 -119.73143 31118 ft 472 kts 144°
2026-04-26 14:14 35.16254 -119.70668 30646 ft 467 kts 144°
2026-04-26 14:14 35.13704 -119.68245 30190 ft 462 kts 144°
2026-04-26 14:14 35.11166 -119.65863 29669 ft 458 kts 145°
2026-04-26 14:15 35.08642 -119.63512 29157 ft 453 kts 145°
2026-04-26 14:15 35.06147 -119.61195 28691 ft 448 kts 145°
2026-04-26 14:15 35.03679 -119.58904 28204 ft 444 kts 146°
2026-04-26 14:15 35.01233 -119.56634 27757 ft 439 kts 146°
2026-04-26 14:16 34.98811 -119.54387 27306 ft 436 kts 146°
2026-04-26 14:16 34.96410 -119.52159 26853 ft 432 kts 145°
2026-04-26 14:16 34.94024 -119.49944 26402 ft 429 kts 145°
2026-04-26 14:16 34.91657 -119.47754 25939 ft 426 kts 146°
2026-04-26 14:17 34.89286 -119.45597 25517 ft 424 kts 146°
2026-04-26 14:17 34.86910 -119.43474 25113 ft 424 kts 146°
2026-04-26 14:17 34.84526 -119.41353 24681 ft 425 kts 147°
2026-04-26 14:17 34.82143 -119.39231 24262 ft 423 kts 147°
2026-04-26 14:18 34.79779 -119.37119 23843 ft 420 kts 146°
2026-04-26 14:18 34.77465 -119.35051 23404 ft 417 kts 146°
2026-04-26 14:18 34.75132 -119.32967 22930 ft 414 kts 146°
2026-04-26 14:18 34.72809 -119.30917 22487 ft 411 kts 147°
2026-04-26 14:19 34.70497 -119.28902 22069 ft 407 kts 147°
2026-04-26 14:19 34.68207 -119.26907 21657 ft 403 kts 147°
2026-04-26 14:19 34.65941 -119.24930 21259 ft 400 kts 147°
2026-04-26 14:19 34.63685 -119.22968 20864 ft 397 kts 147°
2026-04-26 14:20 34.61435 -119.21030 20463 ft 396 kts 147°
2026-04-26 14:20 34.59188 -119.19097 20073 ft 395 kts 147°
2026-04-26 14:20 34.56952 -119.17173 19671 ft 392 kts 147°
2026-04-26 14:20 34.54748 -119.15253 19289 ft 389 kts 147°
2026-04-26 14:21 34.52567 -119.13319 18905 ft 387 kts 146°
2026-04-26 14:21 34.50403 -119.11392 18528 ft 385 kts 146°
2026-04-26 14:21 34.48244 -119.09474 18117 ft 385 kts 147°
2026-04-26 14:21 34.46084 -119.07561 17683 ft 385 kts 147°
2026-04-26 14:22 34.43918 -119.05649 17285 ft 385 kts 148°
2026-04-26 14:22 34.41746 -119.03761 16895 ft 383 kts 148°
2026-04-26 14:22 34.39588 -119.01899 16504 ft 380 kts 148°
2026-04-26 14:22 34.37447 -119.00047 16117 ft 376 kts 147°
2026-04-26 14:23 34.35329 -118.98215 15755 ft 373 kts 147°
2026-04-26 14:23 34.33230 -118.96381 15405 ft 372 kts 146°
2026-04-26 14:23 34.31161 -118.94502 15027 ft 371 kts 146°
2026-04-26 14:23 34.29107 -118.92621 14662 ft 369 kts 146°
2026-04-26 14:24 34.27067 -118.90764 14305 ft 366 kts 146°
2026-04-26 14:24 34.25040 -118.88924 13928 ft 363 kts 146°
2026-04-26 14:24 34.23038 -118.87087 13552 ft 360 kts 145°
2026-04-26 14:24 34.21077 -118.85281 13182 ft 357 kts 145°
2026-04-26 14:25 34.19106 -118.83468 12811 ft 355 kts 145°
2026-04-26 14:25 34.17150 -118.81673 12443 ft 352 kts 145°
2026-04-26 14:25 34.15252 -118.79834 12174 ft 347 kts 141°
2026-04-26 14:25 34.13481 -118.77905 11935 ft 340 kts 139°
2026-04-26 14:26 34.11764 -118.75985 11728 ft 332 kts 139°
2026-04-26 14:26 34.10058 -118.74090 11182 ft 336 kts 140°
2026-04-26 14:26 34.08328 -118.72192 10879 ft 333 kts 140°
2026-04-26 14:26 34.06632 -118.70341 10714 ft 324 kts 140°
2026-04-26 14:27 34.04982 -118.68551 10593 ft 314 kts 140°
2026-04-26 14:27 34.03495 -118.66700 10336 ft 305 kts 123°
2026-04-26 14:27 34.02736 -118.64339 10068 ft 301 kts 99°
2026-04-26 14:27 34.02501 -118.61840 9751 ft 299 kts 95°
2026-04-26 14:28 34.02285 -118.59351 9448 ft 298 kts 96°
2026-04-26 14:28 34.02061 -118.56883 9189 ft 296 kts 96°
2026-04-26 14:28 34.01833 -118.54412 8887 ft 297 kts 96°
2026-04-26 14:28 34.01602 -118.51913 8448 ft 302 kts 96°
2026-04-26 14:29 34.01366 -118.49407 8166 ft 300 kts 96°
2026-04-26 14:29 34.01130 -118.46904 7836 ft 301 kts 96°
2026-04-26 14:29 34.01117 -118.44443 7665 ft 287 kts 79°
2026-04-26 14:29 34.01513 -118.42136 7596 ft 276 kts 75°
2026-04-26 14:30 34.01973 -118.39803 7565 ft 292 kts 75°
2026-04-26 14:30 34.02412 -118.37447 7403 ft 284 kts 76°
2026-04-26 14:30 34.02814 -118.35151 7343 ft 276 kts 79°
2026-04-26 14:30 34.03073 -118.32898 7276 ft 267 kts 83°
2026-04-26 14:31 34.03279 -118.30703 7162 ft 260 kts 82°
2026-04-26 14:31 34.03485 -118.28567 7036 ft 253 kts 81°
2026-04-26 14:31 34.03731 -118.26486 6848 ft 249 kts 81°
2026-04-26 14:31 34.03984 -118.24424 6558 ft 249 kts 80°
2026-04-26 14:32 34.04237 -118.22353 6295 ft 249 kts 81°
2026-04-26 14:32 34.04482 -118.20304 6093 ft 245 kts 81°
2026-04-26 14:32 34.04733 -118.18300 6017 ft 241 kts 80°
2026-04-26 14:32 34.04903 -118.16969 6021 ft 244 kts 79°
2026-04-26 14:33 34.05008 -118.16171 6046 ft 245 kts 80°
2026-04-26 14:33 34.05266 -118.14114 6043 ft 252 kts 81°
2026-04-26 14:33 34.05510 -118.12017 5986 ft 252 kts 80°
2026-04-26 14:33 34.05772 -118.09954 5978 ft 246 kts 80°
2026-04-26 14:34 34.06029 -118.07926 5966 ft 243 kts 81°
2026-04-26 14:34 34.06257 -118.05907 5993 ft 244 kts 82°
2026-04-26 14:34 34.06492 -118.03856 6004 ft 250 kts 82°
2026-04-26 14:34 34.06706 -118.01803 5964 ft 248 kts 89°
2026-04-26 14:35 34.06325 -117.99824 5985 ft 243 kts 122°
2026-04-26 14:35 34.05181 -117.98400 5990 ft 235 kts 155°
2026-04-26 14:35 34.03649 -117.97927 5975 ft 225 kts 186°
2026-04-26 14:35 34.02113 -117.98141 5977 ft 222 kts 194°
2026-04-26 14:36 34.00650 -117.98613 5972 ft 213 kts 214°
2026-04-26 14:36 33.99679 -117.99871 5977 ft 207 kts 249°
2026-04-26 14:36 33.99301 -118.01542 6001 ft 211 kts 259°
2026-04-26 14:36 33.99038 -118.03293 5994 ft 212 kts 262°
2026-04-26 14:37 33.98826 -118.05066 5854 ft 218 kts 263°
2026-04-26 14:37 33.98628 -118.06905 5581 ft 224 kts 264°
2026-04-26 14:37 33.98434 -118.08776 5251 ft 223 kts 264°
2026-04-26 14:37 33.98250 -118.10576 4956 ft 211 kts 264°
2026-04-26 14:38 33.98075 -118.12284 4670 ft 199 kts 264°
2026-04-26 14:38 33.97910 -118.13894 4409 ft 190 kts 264°
2026-04-26 14:38 33.97751 -118.15451 4160 ft 185 kts 264°
2026-04-26 14:38 33.97648 -118.16458 3995 ft 182 kts 264°
2026-04-26 14:39 33.97445 -118.18439 3694 ft 174 kts 264°
2026-04-26 14:39 33.97296 -118.19892 3471 ft 173 kts 264°
2026-04-26 14:39 33.97153 -118.21280 3221 ft 161 kts 264°
2026-04-26 14:39 33.97020 -118.22578 3007 ft 153 kts 264°
2026-04-26 14:40 33.96891 -118.23837 2834 ft 150 kts 263°
2026-04-26 14:40 33.96765 -118.25061 2616 ft 145 kts 264°
2026-04-26 14:40 33.96642 -118.26260 2459 ft 144 kts 263°
2026-04-26 14:40 33.96518 -118.27469 2246 ft 146 kts 263°
2026-04-26 14:41 33.96394 -118.28675 2037 ft 145 kts 263°
2026-04-26 14:41 33.96262 -118.29883 1801 ft 146 kts 263°
2026-04-26 14:41 33.96128 -118.31096 1621 ft 145 kts 263°
2026-04-26 14:41 33.96012 -118.32305 1483 ft 146 kts 263°
2026-04-26 14:42 33.95886 -118.33501 1403 ft 147 kts 262°
2026-04-26 14:42 33.95747 -118.34745 1182 ft 148 kts 262°
2026-04-26 14:42 33.95631 -118.35943 926 ft 145 kts 264°
2026-04-26 14:42 33.95517 -118.37162 692 ft 145 kts 264°
2026-04-26 14:43 33.95391 -118.38364 422 ft 142 kts 266°
2026-04-26 14:43 33.95276 -118.39527 241 ft 142 kts 268°
2026-04-26 14:43 33.95151 -118.40715 107 ft 141 kts 268°
2026-04-26 14:43 33.95053 -118.41743 101 ft 95 kts 263°
2026-04-26 14:44 33.94999 -118.42263 99 ft 36 kts 262°
2026-04-26 14:44 33.94942 -118.42528 98 ft 30 kts 242°
2026-04-26 14:44 33.94855 -118.42672 103 ft 14 kts 228°
2026-04-26 14:44 33.94779 -118.42747 106 ft 14 kts 209°
2026-04-26 14:45 33.94689 -118.42778 104 ft 13 kts 185°
2026-04-26 14:45 33.94640 -118.42747 101 ft 12 kts 121°
2026-04-26 14:45 33.94643 -118.42620 99 ft 12 kts 82°
2026-04-26 14:45 33.94653 -118.42524 99 ft 12 kts 86°
2026-04-26 14:46 33.94606 -118.42453 101 ft 12 kts 129°
2026-04-26 14:46 33.94593 -118.42356 100 ft 12 kts 86°
2026-04-26 14:46 33.94602 -118.42256 100 ft 12 kts 83°
2026-04-26 14:46 33.94612 -118.42157 100 ft 12 kts 83°
2026-04-26 14:47 33.94622 -118.42057 98 ft 12 kts 83°
2026-04-26 14:47 33.94628 -118.41957 100 ft 12 kts 89°
2026-04-26 14:47 33.94632 -118.41857 99 ft 12 kts 84°
2026-04-26 14:47 33.94638 -118.41762 98 ft 11 kts 99°
2026-04-26 14:48 33.94580 -118.41712 99 ft 11 kts 166°
2026-04-26 14:48 33.94504 -118.41699 99 ft 11 kts 173°
2026-04-26 14:48 33.94428 -118.41687 100 ft 11 kts 173°
2026-04-26 14:48 33.94363 -118.41676 99 ft 7 kts 165°
2026-04-26 14:49 33.94347 -118.41650 100 ft 3 kts 102°
2026-04-26 14:49 33.94346 -118.41625 100 ft 3 kts 89°
2026-04-26 14:49 33.94348 -118.41597 99 ft 3 kts 85°
2026-04-26 14:49 33.94349 -118.41580 98 ft 1 kts 84°
2026-04-26 14:50 33.94350 -118.41572 98 ft 0 kts 84°